     2              OBSERVATION DATA    GPS                 RINEX VERSION / TYPE
srx v1.3 (5/19/93) STARR 93/10/11 17:38:17                  PGM / RUN BY / DATE
                                                            COMMENT
sig: 9 8 7 6 5 4 1 0                                        COMMENT
sig: 9 8 7 6 5 4 1 0                                        COMMENT
sig: 9 8 7 6 5 4 1 0                                        COMMENT
Original Marker Name: 3082                                  COMMENT
Campaign Name: Baja (Dixon) 1993                            COMMENT
4-Character Station Name: 3082                              COMMENT
6-Character Antenna Code: DMRCHT                            COMMENT
Vertical Measurement Point: BCR                             COMMENT
Vertical Offset to Rinex Ref. Point: 0.0348                 COMMENT
Radial Measurement Point: ECF                               COMMENT
Radial Offset to Rinex Ref. Point: 0.1897                   COMMENT
Antenna Height from Field Measurement: 0.8355 m             COMMENT
Additional Antenna Identification Info.:                    COMMENT
Turborogue and Ashtech Choke Ring                           COMMENT
Original XYZ: -2493309.0382 -4655182.3466 3565500.9443      COMMENT
New XYZ position is based on association with SCEC monument COMMENT
E1C8K3O2+0011. Position of that monument is believed to be  COMMENT
valid to within 1 m horizontally; vertical accuracy         COMMENT
should be no worse than 3-times this value.                 COMMENT
                                                            COMMENT
Revised Rinex header created by UCSD GPS archive for        COMMENT
GSAC on 09-Nov-2004 (2004:314) 22:02:16 GMT                 COMMENT
For assistance contact dagnew@ucsd.edu                      COMMENT
or anderson@python.ucsd.edu                                 COMMENT
                                                            COMMENT
3082S                                                       MARKER NAME
THE OBSERVER WAS?___JET PROPULSION LABORATORY               OBSERVER / AGENCY
123 TURBOROGUE SNR-8000 100.1                               REC # / TYPE / VERS
123 DORNE-MARGOL. TYPE T                                    ANT # / TYPE
 -2375983.0000 -4835300.0000  3404909.0000                  APPROX POSITION XYZ
        0.7789        0.0000        0.0000                  ANTENNA: DELTA H/E/N
     1     1     0                                          WAVELENGTH FACT L1/2
     4    L1    L2    P1    P2                              # / TYPES OF OBSERV
   120                                                      INTERVAL
  1993     4    15    14     6    0.000000                  TIME OF FIRST OBS
  1993     4    15    23     2    0.000000                  TIME OF LAST OBS
    20                                                      # OF SATELLITES
          01   186   186   186   186                        PRN / # OF OBS
          02   689   689   689   689                        PRN / # OF OBS
          11   558   558   558   558                        PRN / # OF OBS
          12     5     5     5     5                        PRN / # OF OBS
          13   270   270   270   270                        PRN / # OF OBS
          14   662   662   662   662                        PRN / # OF OBS
          15   732   732   732   732                        PRN / # OF OBS
          16   182   182   182   182                        PRN / # OF OBS
          18  1049  1049  1049  1049                        PRN / # OF OBS
          19  1165  1165  1165  1165                        PRN / # OF OBS
          20    20    20    20    20                        PRN / # OF OBS
          21    25    25    25    25                        PRN / # OF OBS
          22   629   629   629   629                        PRN / # OF OBS
          24    25    25    25    25                        PRN / # OF OBS
          25   371   371   371   371                        PRN / # OF OBS
          26   308   308   308   308                        PRN / # OF OBS
          27   963   963   963   963                        PRN / # OF OBS
          28   568   568   568   568                        PRN / # OF OBS
          29   906   906   906   906                        PRN / # OF OBS
                                                            END OF HEADER
 93 04 15 14 06 00.0000000  0  5 29 14 25 15 01
         0.48118        -0.46118  22333824.10318  22333823.72418
        -0.13618        -0.30818  21264205.90318  21264206.12718
        -0.82518        -0.78718  21083430.24418  21083429.71318
        -0.90818        -0.21918  21589926.70018  21589927.33518
        -0.34218        -0.71218  24102852.27618  24102853.38118
 93 04 15 14 08 00.0000000  0  6 29 14 22 25 15 01
   -371438.69808   -289433.60508  22263141.54008  22263141.13808
   -452674.37808   -352733.52408  21178064.89208  21178065.16008
        -0.10418        -0.11118  22550613.92918  22550614.73018
     68268.41808     53195.92308  21096421.51808  21096421.06908
     93386.18608     72768.76208  21607697.77408  21607698.42008
     99093.71208     77215.27408  24121709.27108  24121710.28208
 93 04 15 14 10 00.0000000  0  6 29 14 22 25 15 01
   -740754.09208   -577211.85208  22192863.16308  22192862.87108
   -900514.83908   -701700.15808  21092843.68308  21092843.90608
   -480113.13908   -374114.06908  22459251.23608  22459252.24108
    143163.64708    111555.74708  21110673.66408  21110673.18408
    194212.34108    151334.42108  21626884.55408  21626885.19808
    198905.60808    154990.60208  24140703.10008  24140704.13708
 93 04 15 14 12 00.0000000  0  6 29 22 25 15 01 14
  -1107761.09908   -863191.35408  22123024.05808  22123023.76208
   -955011.71308   -744164.82408  22368881.04608  22368882.05608
    224503.96608    174937.72408  21126152.42408  21126151.92408
    302358.87708    235604.25608  21647464.22808  21647464.98908
    299401.13708    233298.61408  24159826.83808  24159827.98308
  -1343009.56508  -1046501.28408  21008639.82708  21008640.00608
 93 04 15 14 14 00.0000000  0  7 29 22 25 15 01 18 14
  -1472398.32208  -1147324.27608  22053635.96008  22053635.68608
  -1424372.95308  -1109900.78308  22279564.39308  22279565.57808
    312182.64508    243258.68408  21142837.14708  21142836.69508
    417761.32808    325528.05308  21669424.72908  21669425.59908
    400780.21108    312295.14608  24179118.74908  24179119.91708
         0.37717        -0.49217  24965026.90617  24965027.76117
  -1780028.61808  -1387035.64608  20925477.94308  20925478.19108
 93 04 15 14 16 00.0000000  0  7 29 22 25 15 01 18 14
  -1833678.27508  -1428841.14808  21984886.63108  21984886.37308
  -1886934.04808  -1470337.93908  22191542.08408  22191542.93108
    406560.14908    316799.50108  21160796.60508  21160796.27208
    541293.75608    421786.89208  21692932.34208  21692933.34008
    504037.48808    392755.18208  24198768.29608  24198769.53608
   -477155.17607   -371810.28507  24874227.44207  24874228.46607
  -2210240.71008  -1722265.88408  20843611.30708  20843611.59708
 93 04 15 14 18 00.0000000  0  7 29 22 25 15 01 18 14
  -2190825.20308  -1707137.48108  21916923.90408  21916923.52908
  -2341690.83908  -1824693.81408  22105004.75108  22105005.70708
    509044.54808    396657.37708  21180298.81908  21180298.54208
    673568.87808    524858.21508  21718103.59208  21718104.52808
    609755.62508    475132.74208  24218885.97708  24218887.29108
   -951271.75007   -741252.03807  24784006.32607  24784007.34907
  -2632830.09608  -2051556.35508  20763195.22308  20763195.51008
 93 04 15 14 20 00.0000000  0  7 29 22 25 15 01 18 14
  -2543942.48008  -1982293.82508  21849727.98108  21849727.55608
  -2788831.62708  -2173115.11708  22019916.49008  22019917.54408
    618908.64108    482265.66508  21201205.38708  21201205.06108
    814008.21508    634291.25708  21744828.55208  21744829.49008
    717817.09308    559336.28408  24239449.39808  24239450.83108
  -1422825.80707  -1108697.00307  24694272.69407  24694273.71007
  -3048049.36408  -2375103.87008  20684181.66408  20684181.91108
 93 04 15 14 22 00.0000000  0  7 29 22 25 15 01 18 14
  -2893529.82008  -2254699.57008  21783203.74208  21783203.36708
  -3228557.88208  -2515758.86808  21936239.38408  21936240.27208
    735776.01508    573331.05408  21223444.50308  21223444.26508
    962018.50908    749623.73808  21772994.08008  21772995.06808
    827934.18308    645141.59308  24260404.50708  24260405.60208
  -1891985.71307  -1474276.45207  24604994.82107  24604995.87507
  -3456291.24308  -2693214.46108  20606495.89708  20606496.11708
 93 04 15 14 24 00.0000000  0  7 29 22 25 15 01 18 14
  -3239716.17608  -2524455.18008  21717326.72708  21717326.43108
  -3660561.39708  -2852384.89008  21854031.81908  21854032.58408
    859333.52208    669609.53208  21246956.85608  21246956.59308
   1117517.53408    870791.58408  21802584.71208  21802585.86408
    940420.49508    732793.04508  24281809.80308  24281811.22008
  -2358672.13907  -1837928.43107  24516187.39007  24516188.59607
  -3856889.87608  -3005369.26208  20530264.51408  20530264.79208
 93 04 15 14 26 00.0000000  0  7 29 22 25 15 01 18 14
  -3582859.92908  -2791839.92808  21652028.60808  21652028.24508
  -4084870.21308  -3183015.04608  21773288.42908  21773289.27008
    989094.51608    770721.89808  21271649.65308  21271649.46008
   1280087.95608    997469.60908  21833521.05008  21833522.26308
   1054872.48808    821976.15408  24303589.34608  24303591.08908
  -2823395.58108  -2200050.86807  24427753.79808  24427755.06107
  -4250006.01208  -3311693.54808  20455457.01408  20455457.28608
 93 04 15 14 28 00.0000000  0  7 29 22 25 15 01 18 14
  -3922456.59708  -3056460.71708  21587405.44708  21587405.05408
  -4501204.63508  -3507431.40808  21694062.66708  21694063.30908
   1125251.54308    876818.18108  21297559.66508  21297559.44108
   1449619.30708   1129571.73108  21865781.98608  21865783.29108
   1171130.03608    912566.20808  24325712.73908  24325714.37108
  -3285750.97108  -2560328.05907  24339770.84108  24339771.81607
  -4635806.67708  -3612317.47208  20382041.65008  20382042.02208
 93 04 15 14 30 00.0000000  0  7 29 22 25 15 01 18 14
  -4258321.55508  -3318173.67108  21523492.43508  21523492.18708
  -4909189.11408  -3825341.33508  21616425.75308  21616426.54208
   1267874.72108    987953.02808  21324699.95408  21324699.82108
   1626099.37108   1267088.43008  21899365.26408  21899366.54708
   1289754.22807   1005000.34908  24348286.33107  24348288.23408
  -3745754.67708  -2918772.74207  24252235.26608  24252236.52507
  -5013385.82209  -3906535.02508  20310190.73409  20310191.13408
 93 04 15 14 32 00.0000000  0  7 29 22 25 15 01 18 14
  -4590590.29808  -3577084.38108  21460263.87608  21460263.52408
  -5308709.20008  -4136655.64008  21540399.49008  21540400.29008
   1416714.00908   1103931.57608  21353023.07308  21353023.05708
   1809256.97808   1409808.38408  21934219.20408  21934220.59108
   1410440.60607   1099041.32408  24371252.58807  24371254.35308
  -4203487.61708  -3275448.00107  24165131.66608  24165133.00207
  -5382830.01909  -4194413.65008  20239887.76509  20239888.18708
 93 04 15 14 34 00.0000000  0  7 29 22 25 15 01 14 18
  -4919366.07608  -3833273.31408  21397699.98808  21397699.54608
  -5699483.54108  -4441155.08508  21466037.62108  21466038.41408
   1571732.94408   1224725.44908  21382522.38608  21382522.21408
   1998989.25508   1557651.46508  21970324.18008  21970325.56708
   1533257.50507   1194742.44607  24394623.84007  24394626.06307
  -5744212.86009  -4476010.69908  20171119.05909  20171119.43108
  -4658745.16607  -3630194.36908  24078499.11307  24078500.79308
 93 04 15 14 36 00.0000000  0  7 29 22 25 15 14 01 18
  -5244377.46108  -4086528.95008  21335852.34508  21335852.04108
  -6081091.46808  -4738511.87108  21393420.05108  21393420.82508
   1732864.42408   1350282.33508  21413184.85308  21413184.65408
   2195334.91308   1710647.80508  22007687.77508  22007689.16708
  -6096552.04109  -4750560.74308  20104071.15009  20104071.49408
   1658929.74007   1292668.44207  24418539.03907  24418540.82407
  -5111338.56307  -3982864.71308  23992373.69507  23992375.19408
 93 04 15 14 38 00.0000000  0  7 29 22 25 15 14 01 18
  -5565470.17608  -4336731.08308  21274750.48608  21274750.22508
  -6453271.97508  -5028522.61708  21322596.34908  21322597.11208
   1900080.22208   1480580.23708  21445005.04108  21445004.89908
   2398177.21708   1868706.46208  22046287.61708  22046288.99508
  -6439838.25009  -5018056.52008  20038745.98409  20038746.39708
   1787322.90507   1392714.66207  24442971.69407  24442973.56807
  -5560941.52107  -4333204.87507  23906817.07507  23906818.67507
 93 04 15 14 40 00.0000000  0  7 29 22 25 15 14 01 18
  -5882617.66608  -4583859.00708  21214399.32908  21214399.04508
  -6815976.29808  -5311149.32108  21253575.97808  21253576.79508
   2073320.46108   1615572.51208  21477971.67208  21477971.53208
   2607189.13608   2031572.61208  22086061.51208  22086063.03508
  -6774492.57209  -5278826.15408  19975063.40709  19975063.79808
   1917952.07807   1494503.24307  24467829.78807  24467831.90907
  -6008143.31207  -4681673.95807  23821717.60507  23821719.38207
 93 04 15 14 42 00.0000000  0  7 29 22 25 15 14 01 18
  -6195742.80508  -4827852.63308  21154813.67508  21154813.36208
  -7169094.38308  -5586306.21508  21186379.76908  21186380.64008
   2252281.64008   1755022.66308  21512026.93308  21512026.97208
   2822110.64708   2199043.62108  22126959.95608  22126961.60608
  -7100203.16709  -5532626.65508  19913082.76009  19913083.17908
   2051200.20007   1598332.57707  24493186.50207  24493188.07007
  -6452761.08607  -5028129.49607  23737109.71707  23737111.54007
 93 04 15 14 44 00.0000000  0  7 29 22 25 15 14 01 18
  -6505216.27108  -5069000.80508  21095922.83308  21095922.57008
  -7512489.80708  -5853887.00308  21121033.80308  21121034.73408
   2436583.03908   1898634.01808  21547098.40808  21547098.26508
   3042708.91408   2370938.05408  22168938.69208  22168940.32608
  -7416710.35609  -5779255.67108  19852853.49109  19852853.96808
   2187013.47607   1704160.69907  24519031.13007  24519033.08907
  -6894434.86407  -5372291.02507  23653061.96807  23653063.95507
 93 04 15 14 46 00.0000000  0  7 29 22 25 15 14 01 18
  -6810924.05708  -5307214.67808  21037748.54908  21037748.31408
  -7845927.94608  -6113708.87108  21057582.60808  21057583.36408
   2626357.85008   2046510.37808  21583211.46408  21583211.49008
   3268855.23408   2547155.64108  22211973.11108  22211974.77408
  -7723583.75909  -6018377.84408  19794457.52309  19794457.94808
   2325441.81007   1812026.56707  24545373.77007  24545376.01707
  -7333650.52208  -5714537.12308  23569482.37708  23569484.16208
 93 04 15 14 48 00.0000000  0  7 25 15 18 01 14 29 22
   2821752.73008   2198766.00808  21620393.89308  21620394.04608
   3500507.85208   2727663.84808  22256055.50108  22256057.25408
  -7770025.56308  -6054569.67508  23486442.91108  23486444.89008
   2466640.88307   1922051.44707  24572243.35407  24572245.84207
  -8020708.90709  -6249903.97208  19737916.50809  19737916.94208
  -7112329.78008  -5542076.28608  20980392.96808  20980392.76708
  -8169090.27008  -6365523.61008  20996086.79308  20996087.56508
 93 04 15 14 50 00.0000000  0  7 25 15 18 01 14 29 22
   3022834.15608   2355452.72208  21658658.42908  21658658.57208
   3737506.55008   2912337.81108  22301155.02708  22301156.93108
  -8203713.27408  -6392508.17608  23403915.01808  23403916.79108
   2610682.35507   2034291.17707  24599653.49307  24599656.18007
  -8307894.73109  -6473685.17308  19683266.84009  19683267.24508
  -7409628.44908  -5773737.59708  20923818.95408  20923818.75908
  -8481786.22908  -6609182.74008  20936582.72908  20936583.40908
 93 04 15 14 52 00.0000000  0  7 25 15 18 01 14 29 22
   3228980.91108   2516086.42908  21697886.85908  21697887.24708
   3979545.43608   3100939.18008  22347213.69508  22347215.66408
  -8634520.65008  -6728202.24008  23321935.04108  23321937.00208
   2757610.11507   2148779.94807  24627613.46407  24627616.01307
  -8585376.10109  -6689904.46008  19630463.99209  19630464.42408
  -7702979.36708  -6002322.74008  20867996.20608  20867995.91608
  -8783972.90908  -6844652.82708  20879078.58608  20879079.21708
 93 04 15 14 54 00.0000000  0  7 25 15 18 01 14 29 22
   3440071.63808   2680572.57808  21738056.15608  21738056.62708
   4226408.74508   3293299.81508  22394190.52308  22394192.73208
  -9062578.11508  -7061753.46708  23240478.39908  23240480.30908
   2907286.32907   2265410.41207  24656096.47307  24656098.84707
  -8852782.83309  -6898273.38108  19579578.16309  19579578.60608
  -7992519.60508  -6227938.51808  20812898.43208  20812898.21608
  -9075521.05908  -7071833.13408  20823598.72908  20823599.40108
 93 04 15 14 56 00.0000000  0  7 25 15 18 01 14 29 22
   3656001.20608   2848829.24508  21779146.40208  21779146.77508
   4477951.47708   3489306.71808  22442057.94608  22442060.28208
  -9487715.35208  -7393029.18208  23159577.45708  23159579.25008
   3059637.52007   2384125.26307  24685087.79507  24685090.51107
  -9109868.77909  -7098600.12308  19530656.42709  19530656.86808
  -8277932.17008  -6450337.93608  20758586.29208  20758585.96508
  -9356241.36108  -7290576.14808  20770179.40808  20770179.98608
 93 04 15 14 58 00.0000000  0  7 25 15 18 01 14 29 22
   3876651.52308   3020764.41608  21821134.79308  21821135.23208
   4733778.15308   3688651.77308  22490740.42208  22490742.76808
  -9910085.33208  -7722148.56308  23079203.28508  23079204.70608
   3214987.75707   2505177.06407  24714650.28907  24714653.27507
  -9356806.74909  -7291019.36508  19483665.78309  19483666.19508
  -8559311.48808  -6669594.56108  20705041.60008  20705041.31708
  -9626197.58308  -7500931.57008  20718808.30908  20718809.00908
 93 04 15 15 00 00.0000000  0  7 25 15 18 01 14 29 22
   4101899.40208   3196282.09308  21863998.29208  21863998.54408
   4993697.48908   3891185.89408  22540201.66308  22540204.02908
 -10329866.41008  -8049250.60808  22999321.42408  22999322.99308
   3373060.97707   2628350.50007  24744731.07907  24744733.99707
  -9593450.79109  -7475417.36308  19438633.90809  19438634.32708
  -8836479.22508  -6885569.43408  20652298.40708  20652298.06308
  -9885256.34908  -7702795.46308  20669511.05608  20669511.64808
 93 04 15 15 02 00.0000000  0  7 25 15 18 14 01 29 22
   4331768.52708   3375400.75108  21907741.01408  21907741.43008
   5257965.31608   4097108.45708  22590490.48508  22590493.02508
 -10746573.22208  -8373957.11608  22920024.65708  22920026.30808
  -9819366.66409  -7651455.74308  19395643.58909  19395644.10708
   3534257.42307   2753957.71507  24775406.00407  24775408.97607
  -9109131.13008  -7098025.47608  20600414.48308  20600414.21408
 -10132845.66308  -7895722.13308  20622396.21408  20622396.92208
 93 04 15 15 04 00.0000000  0  7 25 15 18 14 01 29 22
   4566742.46008   3558497.16808  21952455.27508  21952455.82108
   5526547.84208   4306393.08108  22641600.42108  22641603.14208
 -11160019.74308  -8696123.12208  22841348.25208  22841349.84008
 -10034099.67709  -7818780.21208  19354781.23009  19354781.76608
   3698839.89107   2882203.44607  24806725.29207  24806727.90907
  -9377325.76708  -7307008.32008  20549378.68708  20549378.46308
 -10368689.83308  -8079496.75108  20577516.59108  20577517.24008
 93 04 15 15 06 00.0000000  0  7 25 15 18 14 01 29 22
   4806886.15808   3745621.97208  21998153.26708  21998153.69708
   5799398.77008   4519003.73808  22693522.47408  22693525.44908
 -11569966.14608  -9015561.76508  22763337.99508  22763339.44808
 -10237382.70009  -7977182.61008  19316097.85609  19316098.35308
   3867154.00807   3013356.91906  24838754.63007  24838757.73606
  -9640658.97908  -7512203.04308  20499268.06508  20499267.87108
 -10592532.74608  -8253919.74008  20534920.62408  20534921.26408
 93 04 15 15 08 00.0000000  0  6 25 15 18 14 29 22
   5051123.25108   3935936.44808  22044630.14808  22044630.66308
   6075784.69408   4734368.91708  22746117.47808  22746120.48208
 -11976706.25308  -9332501.98008  22685937.86008  22685939.31708
 -10429463.73809  -8126856.18708  19279546.10709  19279546.57408
  -9899604.40408  -7713978.70408  20449992.40008  20449992.24308
 -10804810.38808  -8419330.83708  20494525.63708  20494526.14408
 93 04 15 15 10 00.0000000  0  7 25 15 14 18 19 29 22
   5297164.53508   4127656.77408  22091450.55208  22091450.97808
   6353251.32908   4950576.22208  22798917.95008  22798921.06008
 -10612955.42309  -8269836.76808  19244628.82109  19244629.37808
 -12382547.26608  -9648741.57908  22608708.82408  22608710.23108
         0.25718         0.25117  23777161.99018  23777165.50217
 -10156528.09008  -7914178.98708  20401101.48308  20401101.22208
 -11007688.77008  -8577417.83308  20455919.07908  20455919.65408
 93 04 15 15 12 00.0000000  0  7 25 15 14 18 19 29 22
   5545062.48408   4320823.85608  22138624.05108  22138624.45608
   6631816.58108   5167639.55708  22851927.50108  22851930.78608
 -10787431.10309  -8405791.88708  19211427.18009  19211427.77108
 -12787720.67608  -9964460.99808  22531606.73108  22531608.37108
   -483275.05908   -376578.22507  23685197.84908  23685201.45007
 -10410831.57108  -8112337.54108  20352709.17208  20352708.92808
 -11200871.04708  -8727949.42908  20419157.60108  20419158.21408
 93 04 15 15 14 00.0000000  0  7 25 15 14 18 29 22 19
   5796715.74908   4516917.16508  22186512.18508  22186512.63708
   6913151.46308   5386861.06308  22905464.06508  22905467.62208
 -10950595.52609  -8532933.03808  19180378.12309  19180378.69808
 -13190187.52708 -10278071.40308  22455019.82008  22455021.21808
 -10660935.79408  -8307223.94308  20305115.90208  20305115.69008
 -11382416.90708  -8869413.68308  20384610.55508  20384611.21808
   -961863.60008   -749504.63208  23594125.88108  23594129.46108
 93 04 15 15 16 00.0000000  0  7 25 15 14 18 29 22 19
   6053011.03308   4716627.61408  22235283.63308  22235284.09708
   7197877.85708   5608725.28708  22959646.00508  22959649.74208
 -11101889.51409  -8650824.49608  19151587.85209  19151588.38108
 -13588772.64708 -10588657.09908  22379171.32208  22379172.83708
 -10906167.32708  -8498313.45008  20258449.91308  20258449.63508
 -11551438.65708  -9001118.90008  20352446.81408  20352447.44508
  -1434539.45107  -1117823.73007  23504178.39607  23504182.41007
 93 04 15 15 18 00.0000000  0  7 25 15 14 18 29 22 19
   6313698.12608   4919760.26308  22284890.90408  22284891.29708
   7485886.00408   5833146.72208  23014452.71108  23014456.25808
 -11241467.50409  -8759586.62308  19125027.12309  19125027.71208
 -13983458.76408 -10896204.60308  22304065.10408  22304066.52408
 -11145936.23008  -8685146.36808  20212823.50508  20212823.15808
 -11707792.84708  -9122953.29808  20322693.51308  20322694.13908
  -1900943.77508  -1481255.89407  23415425.05308  23415428.88807
 93 04 15 15 20 00.0000000  0  7 25 15 18 14 29 22 19
   6578884.99008   5126399.21608  22335354.24508  22335354.81808
   7776873.34408   6059889.61708  23069826.06208  23069829.85608
 -14374653.70608 -11201031.70708  22229623.20008  22229624.42708
 -11368733.58709  -8858755.06908  19100809.27709  19100809.87208
 -11380537.77508  -8867952.78308  20168180.23808  20168179.90508
 -11851536.87408  -9234961.59508  20295340.01908  20295340.52908
  -2361516.17008  -1840143.65907  23327781.14608  23327785.03607
 93 04 15 15 22 00.0000000  0  7 25 15 14 18 29 22 19
   6847570.50708   5335764.38908  22386483.36508  22386484.25608
   8070408.22508   6288617.59208  23125684.48508  23125688.19708
 -11483830.93309  -8948441.37308  19078907.01509  19078907.60208
 -14762242.47908 -11503048.82708  22155867.45908  22155868.71208
 -11610350.56108  -9047027.68308  20124448.32808  20124448.08708
 -11982863.67208  -9337294.13608  20270349.35008  20270349.87208
  -2816461.82508  -2194646.83607  23241208.25808  23241211.94207
 93 04 15 15 24 00.0000000  0  7 25 15 14 18 29 22 19
   7119848.75808   5547929.10008  22438296.28508  22438297.29008
   8366241.46508   6519136.42908  23181980.04508  23181984.04908
 -11587137.35809  -9028939.94408  19059248.49709  19059249.09408
 -15146341.13408 -11802346.40108  22082775.72308  22082777.05408
 -11835003.97008  -9222082.28608  20081698.18508  20081697.91708
 -12101794.10208  -9429967.17108  20247717.62108  20247718.05308
  -3265305.90708  -2544395.44308  23155796.04608  23155799.63008
 93 04 15 15 26 00.0000000  0  7 25 15 14 18 29 22 19
   7395859.35208   5763002.12108  22490819.60908  22490820.38408
   8664299.90808   6751389.25207  23238699.09308  23238702.91507
 -11678388.30709  -9100044.63908  19041884.05209  19041884.67008
 -15526850.15108 -12098846.82108  22010367.17908  22010368.59108
 -12054462.48808  -9393088.92408  20039936.68808  20039936.38508
 -12208183.36808  -9512867.87908  20227472.43308  20227472.90208
  -3708342.00308  -2889618.25808  23071488.94008  23071492.59308
 93 04 15 15 28 00.0000000  0  7 25 15 18 14 29 22 19
   7675458.06408   5980871.08708  22544025.75008  22544026.54308
   8964287.67208   6985145.45708  23295784.98308  23295789.41108
 -15903997.11508 -12392727.48108  21938598.58308  21938599.84508
 -11757715.86709  -9161858.39008  19026788.64909  19026789.33108
 -12268973.25708  -9560240.18208  19999116.64608  19999116.37008
 -12302115.14108  -9586061.45308  20209597.72008  20209598.27908
  -4145649.34608  -3230377.04408  22988271.88508  22988275.63908
 93 04 15 15 30 00.0000000  0  7 18 25 15 14 29 22 19
 -16277381.01108 -12683675.85908  21867545.88108  21867547.24408
   7958365.90908   6201318.55808  22597861.45308  22597862.21508
   9266078.99908   7220306.97207  23353214.45608  23353218.84607
 -11824828.75709  -9214154.21308  19014017.44109  19014018.19008
 -12478259.99908  -9723320.77608  19959290.72308  19959290.49008
 -12383516.87008  -9649491.37208  20194107.50408  20194107.99508
  -4576882.09708  -3566402.44308  22906210.94908  22906214.58908
 93 04 15 15 32 00.0000000  0  7 18 25 15 14 29 22 19
 -16647069.76508 -12971744.92808  21797196.40508  21797197.61008
   8244618.27308   6424372.18008  22652333.72508  22652334.46108
   9569447.03207   7456697.13107  23410943.95007  23410948.29207
 -11880030.81209  -9257168.86008  19003512.96809  19003513.62308
 -12682450.01308  -9882429.89508  19920434.66308  19920434.44008
 -12452422.87408  -9703184.35908  20180995.11008  20180995.66408
  -5002151.12008  -3897780.74008  22825284.98208  22825288.57208
 93 04 15 15 34 00.0000000  0  7 18 25 15 14 29 22 19
 -17013282.57708 -13257105.46408  21727508.37508  21727509.51908
   8534222.67508   6650037.77908  22707443.77408  22707444.54608
   9874241.75707   7694198.98708  23468944.66807  23468949.53608
 -11923085.94709  -9290718.38208  18995319.90409  18995320.59908
 -12881272.48908 -10037356.50008  19882600.02908  19882599.80108
 -12508798.81708  -9747113.66508  20170267.13008  20170267.68208
  -5421363.83508  -4224439.80308  22745511.33308  22745514.90508
 93 04 15 15 36 00.0000000  0  7 18 25 15 14 29 22 19
 -17376134.70808 -13539847.30908  21658459.75908  21658460.84908
   8826624.10408   6877882.89008  22763086.26708  22763086.92208
  10180209.74207   7932615.04608  23527168.98007  23527173.88908
 -11953955.60509  -9314772.73708  18989445.64309  18989446.35908
 -13075109.51108 -10188398.32708  19845714.11508  19845713.81008
 -12552728.65708  -9781344.69908  20161907.61208  20161908.11908
  -5834339.58108  -4546238.85308  22666924.55608  22666928.07108
 93 04 15 15 38 00.0000000  0  7 18 25 15 19 29 14 22
 -17735308.73208 -13819723.07808  21590111.12208  21590112.20808
   9121835.22208   7107917.34408  22819263.05908  22819263.96508
  10487082.35507   8171736.07908  23585565.43807  23585570.28908
  -6241160.18808  -4863241.66608  22589508.81208  22589512.36208
 -13263875.40908 -10335488.63308  19809793.09408  19809792.83808
 -11972527.34009  -9329244.28808  18985911.66309  18985912.40308
 -12584314.35808  -9805956.92808  20155897.07808  20155897.55708
 93 04 15 15 40 00.0000000  0  7 18 25 15 19 14 29 22
 -18090695.10708 -14096647.43308  21522483.35308  21522484.41308
   9420058.89208   7340299.23808  22876013.21608  22876014.05808
  10794917.21908   8411606.86408  23644145.06708  23644149.88608
  -6641806.76308  -5175433.50808  22513268.24108  22513271.49308
 -11979034.49109  -9334314.87108  18984673.39709  18984674.17008
 -13446997.87608 -10478181.46108  19774946.07708  19774945.81508
 -12603345.47408  -9820786.35408  20152275.50108  20152275.93308
 93 04 15 15 42 00.0000000  0  7 18 25 15 19 14 29 22
 -18442087.33108 -14370459.45608  21455615.52808  21455616.59008
   9721367.65808   7575085.11207  22933350.61308  22933351.24307
  11103439.25107   8652013.10307  23702854.99807  23702860.14907
  -7036395.76808  -5482905.15108  22438180.02208  22438183.29508
 -11973580.85109  -9330065.36008  18985711.29809  18985712.05408
 -13624862.57408 -10616777.33508  19741099.57208  19741099.31808
 -12609951.62208  -9825933.98008  20151018.44908  20151018.85608
 93 04 15 15 44 00.0000000  0  7 18 25 15 19 14 29 22
 -18790044.05508 -14641594.47208  21389401.46108  21389402.66108
  10025041.99308   7811714.27107  22991137.81808  22991138.81007
  11412255.61807   8892648.74507  23761621.26507  23761626.21507
  -7424943.77908  -5785669.56608  22364241.60208  22364244.85008
 -11956224.49809  -9316541.01608  18989014.09009  18989014.90108
 -13797350.78008 -10751183.73008  19708276.12308  19708275.91308
 -12604389.48608  -9821599.82008  20152076.93908  20152077.31808
 93 04 15 15 46 00.0000000  0  7 18 19 25 15 14 29 22
 -19134895.31008 -14910309.64408  21323778.39008  21323779.50508
  -7807843.82008  -6084032.99708  22291377.93908  22291381.30408
  10330551.07208   8049773.11707  23049274.45108  23049275.32707
  11720886.71807   9133139.99707  23820352.23707  23820357.38507
 -11927193.14909  -9293919.27308  18994538.64409  18994539.45608
 -13964728.94208 -10881608.26908  19676425.23108  19676424.88208
 -12587014.35108  -9808060.74108  20155383.24508  20155383.65308
 93 04 15 15 48 00.0000000  0  7 18 19 25 15 29 14 22
 -19476244.04808 -15176295.58808  21258821.81008  21258822.98908
  -8184928.95608  -6377865.31908  22219620.96008  22219624.17508
  10638337.48307   8289606.49607  23107844.17007  23107845.38407
  12029219.33707   9373398.66807  23879026.25707  23879031.77407
 -14127133.17608 -11008157.01408  19645520.65908  19645520.38108
 -11886701.77609  -9262367.64108  19002244.05109  19002244.84908
 -12557821.16408  -9785312.79108  20160938.50508  20160938.87508
 93 04 15 15 50 00.0000000  0  7 18 19 25 15 29 14 22
 -19814355.26808 -15439758.78508  21194481.37108  21194482.49908
  -8556096.04608  -6667086.16508  22148990.06508  22148992.95908
  10948120.30507   8530995.50507  23166794.07007  23166795.36207
  12337035.32007   9613254.74907  23937602.05307  23937607.76307
 -14284445.30008 -11130737.89008  19615585.14308  19615584.86208
 -11834674.57409  -9221827.04908  19012144.53709  19012145.41108
 -12516920.74108  -9753442.32808  20168721.54208  20168722.03808
 93 04 15 15 52 00.0000000  0  7 18 19 25 15 29 14 22
 -20149184.42408 -15700664.53108  21130765.42108  21130766.43208
  -8921547.27508  -6951853.13408  22079446.75308  22079449.66108
  11259601.59607   8773708.03607  23226067.14607  23226068.16107
  12644067.61107   9852500.09407  23996028.96307  23996034.67907
 -14436425.43808 -11249163.97508  19586664.35008  19586664.07408
 -11771027.89709  -9172232.31308  19024256.18709  19024257.05208
 -12464481.17208  -9712580.33408  20178700.51508  20178701.02808
 93 04 15 15 54 00.0000000  0  7 18 19 25 15 29 14 22
 -20480638.49608 -15958940.33708  21067691.71008  21067692.79108
  -9281395.54308  -7232254.14108  22010969.69508  22010972.77508
  11572593.11207   9017597.33707  23285627.71807  23285628.80807
  12950052.26307  10090929.06007  24054256.24607  24054262.31207
 -14583543.48608 -11363801.42008  19558668.77508  19558668.55308
 -11695951.60609  -9113731.38908  19038542.76909  19038543.68508
 -12400678.27208  -9662863.79908  20190841.90708  20190842.30408
 93 04 15 15 56 00.0000000  0  7 19 25 15 29 14 22 18
  -9635670.35508  -7508312.20908  21943553.32408  21943556.44608
  11886884.31707   9262499.37607  23345435.34607  23345436.66107
  13254752.11507  10328356.79307  24112239.32907  24112245.47607
 -14725940.30308 -11474759.98108  19531571.48708  19531571.24408
 -11609958.62809  -9046723.96508  19054906.79409  19054907.70508
 -12325667.64708  -9604413.96708  20205115.98208  20205116.35708
 -20808685.21108 -16214561.06908  21005266.47208  21005267.46308
 93 04 15 15 58 00.0000000  0  7 19 25 15 29 14 22 18
  -9984334.43308  -7779998.24608  21877204.60308  21877207.39508
  12202613.94507   9508522.31307  23405517.14307  23405518.19707
  13558018.52007  10564667.44907  24169949.64107  24169955.86907
 -14863014.31608 -11581570.90508  19505487.15208  19505486.95708
 -11513014.25609  -8971183.00408  19073354.71209  19073355.69208
 -12239524.20308  -9537289.21908  20221508.49308  20221508.90208
 -21133813.53508 -16467907.72008  20943396.57308  20943397.57808
 93 04 15 16 00 00.0000000  0  7 19 25 29 14 22 15 18
 -10327948.07708  -8047748.89208  21811816.77608  21811819.48408
  12519262.78607   9755261.41807  23465773.46407  23465774.99207
 -14995271.15808 -11684628.19008  19480319.55608  19480319.33708
 -11405191.02708  -8887165.02708  19093872.86208  19093873.93908
 -12142651.44208  -9461803.96808  20239942.81008  20239943.20908
  13859388.39707  10799500.19807  24227299.11407  24227305.61807
 -21455695.35008 -16718724.61308  20882144.44308  20882145.27408
 93 04 15 16 02 00.0000000  0  8 19 29 14 22 25 15 28 18
 -10666379.80108  -8311461.70408  21747415.34808  21747418.09308
 -15123075.34708 -11784215.86908  19455999.27508  19455998.96308
 -11287325.42208  -8795321.82108  19116302.05708  19116303.09608
 -12035542.32808  -9378342.34208  20260325.02908  20260325.44808
  12836594.09807  10002532.31507  23526159.44907  23526161.10607
  14158314.43107  11032428.51006  24284183.59107  24284190.39806
        -0.30317        -0.43817  24141587.42917  24141592.89117
 -21775085.52908 -16967599.98608  20821366.47908  20821367.28108
 93 04 15 16 04 00.0000000  0  8 19 29 14 22 25 15 28 18
 -10999581.02208  -8571098.78308  21684008.92108  21684011.79208
 -15246244.10208 -11880191.53008  19432560.92208  19432560.68408
 -11159432.11308  -8695664.81208  19140639.42008  19140640.51208
 -11918153.92908  -9286870.90108  20282663.27608  20282663.75808
  13154431.90907  10250197.92907  23586642.51907  23586644.20007
  14454793.20306  11263449.73506  24340602.50306  24340609.59306
   -317558.70707   -247448.12507  24081158.06707  24081163.11707
 -22091726.30308 -17214332.97608  20761111.59708  20761112.55308
 93 04 15 16 06 00.0000000  0  7 19 25 29 14 22 28 18
 -11327782.74908  -8826840.17908  21621554.27408  21621556.70608
  13472586.58607  10498110.44707  23647185.43307  23647187.13407
 -15364770.44808 -11972549.73708  19410006.24408  19410005.97408
 -11020839.62008  -8587670.79308  19167012.77808  19167013.94208
 -11790484.48508  -9187388.27208  20306958.00808  20306958.48608
   -634272.72907   -494237.94907  24020889.05207  24020893.84607
 -22405037.41308 -17458471.43308  20701490.43608  20701491.41808
 93 04 15 16 08 00.0000000  0  7 19 25 28 29 14 22 18
 -11651068.87908  -9078751.26008  21560034.80108  21560037.33908
  13791372.12507  10746514.51507  23707848.37207  23707850.32507
   -949713.37607   -740035.53107  23960862.43107  23960867.32007
 -15478536.26508 -12061198.43608  19388357.31708  19388357.09908
 -10872031.16508  -8471716.28508  19195330.22808  19195331.37908
 -11652697.24508  -9080021.63908  20333178.15908  20333178.57508
 -22715360.53208 -17700281.58208  20642437.88908  20642438.86508
 93 04 15 16 10 00.0000000  0  6 19 25 29 14 22 18
 -11969137.83908  -9326596.98808  21499508.05008  21499510.81508
  14110548.63007  10995223.24607  23768586.00307  23768587.87307
 -15587021.76708 -12145732.59708  19367713.24508  19367713.03208
 -10713238.26908  -8347981.70408  19225547.58708  19225548.73108
 -11504926.87108  -8964875.94008  20361297.98608  20361298.44308
 -23022681.29008 -17939752.22608  20583956.63608  20583957.57408
 93 04 15 16 12 00.0000000  0  6 19 25 29 14 22 18
 -12282011.52208  -9570394.44208  21439970.00408  21439972.57308
  14429820.18507  11244006.09107  23829341.27207  23829343.64607
 -15690684.19708 -12226508.52608  19347986.97608  19347986.70008
 -10544592.64608  -8216569.67908  19257639.94408  19257641.09408
 -11347362.95608  -8842098.91608  20391281.38408  20391281.89008
 -23327085.46008 -18176950.20008  20526030.46908  20526031.30408
 93 04 15 16 14 00.0000000  0  7 19 25 28 29 14 22 18
 -12590199.65408  -9810540.85208  21381323.63208  21381326.06908
  14749219.79607  11492888.68607  23890121.41907  23890123.14907
         0.41817        -0.33317  23781756.38317  23781760.75617
 -15789579.31308 -12303569.67408  19329167.87808  19329167.60008
 -10366386.30108  -8077707.74108  19291551.60608  19291552.79908
 -11180353.42608  -8711961.67308  20423062.17508  20423062.83508
 -23628563.86108 -18411868.36608  20468660.94808  20468661.85608
 93 04 15 16 16 00.0000000  0  7 19 25 28 29 14 22 18
 -12893599.08408 -10046955.80008  21323588.51608  21323590.95208
  15068578.36007  11741739.34007  23950893.72407  23950895.51007
   -311560.22907   -242774.39507  23722468.06307  23722472.24007
 -15883891.02308 -12377059.32908  19311220.97008  19311220.76208
 -10179003.78208  -7931695.54408  19327209.43608  19327210.74308
 -11004270.57708  -8574754.31008  20456569.65308  20456570.37308
 -23927060.34408 -18644462.94808  20411858.96608  20411859.75208
 93 04 15 16 18 00.0000000  0  7 19 25 28 29 14 22 18
 -13192891.15108 -10280170.18208  21266634.92008  21266637.29508
  15387260.17207  11990062.72407  24011536.89407  24011538.86707
   -622359.63407   -484955.19807  23663324.50207  23663328.63507
 -15973887.58608 -12447186.53408  19294095.21308  19294094.98008
  -9982571.21908  -7778631.36108  19364589.46608  19364590.66908
 -10819519.90108  -8430792.79208  20491726.69808  20491727.30108
 -24223029.09308 -18875087.88508  20355537.95308  20355538.66308
 93 04 15 16 20 00.0000000  0  7 19 25 28 29 14 22 18
 -13487732.48308 -10509916.46008  21210528.40508  21210530.61208
  15705306.76107  12237891.09807  24072059.11607  24072061.21107
   -931795.96807   -726073.88507  23604440.53107  23604444.79107
 -16058977.73408 -12513490.54308  19277903.02308  19277902.83608
  -9777164.34508  -7618574.20508  19403677.22908  19403678.52508
 -10626058.35508  -8280043.59508  20528541.25808  20528541.81308
 -24516122.96308 -19103472.65408  20299764.00308  20299764.75708
 93 04 15 16 22 00.0000000  0  6 19 28 29 14 22 18
 -13777808.81308 -10735949.75208  21155328.53608  21155330.59608
  -1240080.79208   -966295.31207  23545775.59808  23545779.71507
 -16139516.50008 -12576248.02108  19262577.04108  19262576.85208
  -9562877.16508  -7451597.32908  19444454.83308  19444456.17308
 -10424012.21608  -8122605.11108  20566989.40508  20566989.94708
 -24806556.94808 -19329784.78208  20244496.22708  20244496.82108
 93 04 15 16 24 00.0000000  0  6 19 28 29 14 22 18
 -14063484.25208 -10958553.78108  21100966.10708  21100968.20008
  -1546702.38308  -1205220.76407  23487427.19308  23487430.90707
 -16215349.44108 -12635338.62308  19248146.50108  19248146.31508
  -9340174.38908  -7278062.85508  19486833.84008  19486835.23808
 -10213571.77108  -7958625.59708  20607034.91808  20607035.53708
 -25093924.12808 -19553707.19408  20189811.97108  20189812.65808
 93 04 15 16 26 00.0000000  0  6 19 28 29 14 22 18
 -14344600.42808 -11177605.16908  21047471.32008  21047473.56008
  -1851533.59808  -1442751.16907  23429419.27608  23429422.96807
 -16286008.81708 -12690397.89208  19234700.50608  19234700.29908
  -9109002.71908  -7097929.25308  19530824.45508  19530825.96508
  -9994775.76008  -7788135.26708  20648670.56408  20648671.06208
 -25378173.99508 -19775200.52208  20135720.96308  20135721.65708
 93 04 15 16 28 00.0000000  0  6 28 29 14 22 18 19
  -2154677.27808  -1678966.65007  23371732.59008  23371736.33307
 -16351859.68608 -12741710.27208  19222169.52508  19222169.32708
  -8869592.68908  -6911376.16008  19576382.81108  19576384.30408
  -9768047.62308  -7611464.06108  20691815.51808  20691816.09608
 -25659648.09908 -19994530.91208  20082158.12708  20082158.82508
 -14621450.56508 -11393332.32308  20994788.43908  20994790.43508
 93 04 15 16 30 00.0000000  0  6 28 29 14 22 18 19
  -2455763.17108  -1913578.68407  23314437.50808  23314441.06407
 -16413278.74808 -12789569.29408  19210481.84908  19210481.65108
  -8622238.37308  -6718632.71508  19623452.86208  19623454.38708
  -9533677.83708  -7428838.33108  20736414.69808  20736415.27508
 -25938252.22508 -20211624.97308  20029141.49908  20029142.20508
 -14894235.84808 -11605892.11608  20942879.02408  20942881.08008
 93 04 15 16 32 00.0000000  0  7 31 28 29 14 22 18 19
        -0.81817        -0.30117  23773264.69117  23773271.23417
  -2754859.00508  -2146639.98607  23257521.14008  23257524.58407
 -16469924.07308 -12833708.51908  19199702.57408  19199702.40808
  -8366861.61408  -6519638.01908  19672049.69508  19672051.30308
  -9291768.82808  -7240337.87708  20782448.40008  20782449.12808
 -26213787.27608 -20426327.53308  19976708.90308  19976709.60408
 -15162925.12008 -11815260.17008  20891748.96408  20891750.86008
 93 04 15 16 34 00.0000000  0  7 31 28 29 14 22 18 19
   -345766.58107   -269428.18807  23707467.81007  23707474.21907
  -3051618.65608  -2377880.87307  23201049.51308  23201052.67507
 -16521539.93908 -12873928.67308  19189880.47408  19189880.30708
  -8103617.55508  -6314512.97308  19722143.50608  19722145.09208
  -9042276.99808  -7045928.74808  20829925.18108  20829925.89508
 -26486049.38608 -20638479.75808  19924899.07808  19924899.71508
 -15427067.51008 -12021085.24408  20841484.17808  20841486.04508
 93 04 15 16 36 00.0000000  0  7 31 29 14 22 28 18 19
   -693589.74207   -540459.16407  23641279.09707  23641285.61307
 -16567930.31508 -12910077.01008  19181052.69208  19181052.53808
  -7832676.61708  -6103390.37108  19773701.98708  19773703.62008
  -8785342.48808  -6845720.13008  20878818.37008  20878819.06208
  -3345822.98608  -2607130.57408  23145064.07208  23145067.39108
 -26754740.35908 -20847849.28608  19873768.76008  19873769.49008
 -15686994.40308 -12223625.48008  20792021.64108  20792023.47308
 93 04 15 16 38 00.0000000  0  8 31 29 14 22 28 27 18 19
  -1043077.21107   -812787.00807  23574773.95707  23574780.48407
 -16608933.85108 -12942027.82708  19173249.95508  19173249.79008
  -7554417.55008  -5886565.33708  19826653.13308  19826654.71308
  -8521358.89208  -6640018.72208  20929052.81108  20929053.55608
  -3637567.40708  -2834463.42708  23089546.44708  23089549.95908
        -0.12117        -0.61916  23897838.73417  23897843.48316
 -27020286.23608 -21054768.09308  19823237.09508  19823237.71308
 -15942530.80108 -12422744.56408  20743394.49808  20743396.22708
 93 04 15 16 40 00.0000000  0  8 22 31 29 14 28 27 18 19
  -8250431.21408  -6428906.36308  20980608.79608  20980609.45408
  -1393869.49107  -1086131.49407  23508020.19707  23508026.73507
 -16644936.89508 -12970082.16808  19166398.90208  19166398.75008
  -7268584.43608  -5663838.45908  19881045.54208  19881047.28408
  -3926343.37308  -3059483.22908  23034593.71008  23034596.98508
   -359588.26407   -280199.14107  23829411.29707  23829416.28107
 -27282235.99108 -21258884.73308  19773389.64608  19773390.27208
 -16193984.50908 -12618682.33408  20695544.36308  20695546.16808
 93 04 15 16 42 00.0000000  0  8 22 31 28 29 14 27 18 19
  -7972638.22708  -6212444.40508  21033471.10908  21033471.78008
  -1746241.12207  -1360706.61907  23440965.98307  23440972.51007
  -4211938.64208  -3282024.59108  22980246.56708  22980249.76308
 -16675509.55408 -12993905.05708  19160581.08508  19160580.94808
  -6975791.15208  -5435688.08508  19936762.46408  19936764.19208
   -716976.43407   -558683.37607  23761402.55107  23761407.55107
 -27540615.06908 -21460219.03008  19724221.71408  19724222.38808
 -16441306.48908 -12811400.59308  20648480.38708  20648482.00308
 93 04 15 16 44 00.0000000  0  8 22 31 28 29 14 27 18 19
  -7688489.04708  -5991029.58508  21087543.04508  21087543.75308
  -2100176.94407  -1636500.44507  23373613.97507  23373620.53707
  -4494540.33608  -3502233.31308  22926468.90708  22926471.98008
 -16701002.40508 -13013769.64608  19155730.01008  19155729.85608
  -6676098.01508  -5202161.22208  19993792.30908  19993794.12808
  -1072625.52507   -835812.50907  23693724.75607  23693729.75707
 -27795707.37808 -21658992.21208  19675679.19608  19675679.86708
 -16684510.38708 -13000909.97308  20602200.02608  20602201.88108
 93 04 15 16 46 00.0000000  0  8 22 31 28 29 14 27 18 19
  -7398061.73608  -5764722.71808  21142809.58008  21142810.37808
  -2455498.22107  -1913373.83307  23305998.30507  23306004.40107
  -4774015.33608  -3720005.65208  22873286.51108  22873289.37108
 -16721697.84308 -13029895.99708  19151791.78708  19151791.66108
  -6369921.13208  -4963582.09108  20052056.09508  20052057.91608
  -1426730.19207  -1111738.17508  23626340.83907  23626345.99808
 -28047245.86308 -21854996.18108  19627812.95608  19627813.59408
 -16924014.79108 -13187536.64108  20556623.85208  20556625.60608
 93 04 15 16 48 00.0000000  0  8 22 29 14 31 28 27 18 19
  -7101538.34708  -5533665.67908  21199236.18708  21199237.05308
 -16736995.37508 -13041816.18908  19148880.82908  19148880.69008
  -6057500.00908  -4720137.34208  20111508.05908  20111509.94208
  -2812105.53307  -2191249.24607  23238137.87407  23238144.07907
  -5049986.99208  -3935048.04908  22820770.43308  22820773.27008
  -1779076.68907  -1386293.74607  23559291.54007  23559296.54307
 -28295003.95608 -22048054.41008  19580666.25508  19580666.86008
 -17159574.42608 -13371089.48108  20511798.26308  20511799.94108
 93 04 15 16 50 00.0000000  0  8 22 31 28 27 29 14 18 19
  -6799034.97108  -5297948.90408  21256800.78608  21256801.69108
  -3169661.71507  -2469864.01307  23170096.79707  23170102.87807
  -5322420.42008  -4147333.34908  22768927.85608  22768930.36308
  -2129676.83407  -1659488.47907  23492574.26407  23492579.24007
 -16746652.29808 -13049341.09408  19147043.17508  19147043.02008
  -5738735.82608  -4471749.95608  20172167.09308  20172169.06208
 -28539107.32308 -22238264.78808  19534214.83508  19534215.50008
 -17391055.01808 -13551463.84508  20467748.86608  20467750.44208
 93 04 15 16 52 00.0000000  0  8 22 31 28 29 14 27 18 19
  -6490802.35208  -5057767.78708  21315455.53808  21315456.48608
  -3527855.09907  -2748975.18707  23101934.56807  23101940.24307
  -5591171.86708  -4356749.58908  22717785.75408  22717788.27708
 -16751019.02508 -13052743.76408  19146212.27908  19146212.12808
  -5413804.08108  -4218556.68608  20233999.77308  20234001.77508
  -2478460.51807  -1931267.75107  23426202.81907  23426207.78107
 -28779017.03308 -22425207.37608  19488561.56908  19488562.05608
 -17618952.05708 -13729045.82008  20424381.36408  20424383.02508
 93 04 15 16 54 00.0000000  0  8 22 31 28 27 29 14 18 19
  -6176875.20108  -4813149.38308  21375194.04408  21375195.09708
  -3886479.03908  -3028421.79707  23033690.15708  23033695.79507
  -5856087.60108  -4563177.00008  22667373.45208  22667376.09508
  -2825434.56107  -2201636.89808  23360175.61807  23360180.59408
 -16749862.25808 -13051842.43608  19146432.44608  19146432.44308
  -5082605.75008  -3960480.37508  20297024.79508  20297027.04208
 -29014861.57508 -22608982.30208  19443681.76608  19443682.37008
 -17842651.19508 -13903356.72008  20381812.86308  20381814.43008
 93 04 15 16 56 00.0000000  0  8 22 31 28 27 29 14 18 19
  -5857702.62008  -4564443.62108  21435930.62008  21435931.63008
  -4245800.41308  -3308411.78807  22965312.97908  22965318.66207
  -6116846.10808  -4766365.02308  22617752.43508  22617754.78408
  -3170575.01207  -2470577.27207  23294497.67307  23294502.32507
 -16743073.52508 -13046552.57408  19147724.32508  19147724.25208
  -4745884.13608  -3698100.20608  20361101.13908  20361103.37408
 -29246832.54908 -22789738.89408  19399539.17508  19399539.73208
 -18062505.51408 -14074671.67408  20339975.84108  20339977.43708
 93 04 15 16 58 00.0000000  0  8 22 31 28 27 29 14 18 19
  -5533657.61308  -4311941.15608  21497594.46408  21497595.51008
  -4605926.72707  -3589029.10808  22896782.66807  22896788.67308
  -6373429.58608  -4966299.85808  22568926.02608  22568928.14608
  -3514186.21308  -2738326.00607  23229110.43408  23229114.98407
 -16730956.41908 -13037110.71208  19150030.15108  19150030.08908
  -4404110.00508  -3431783.02608  20426138.89908  20426141.19508
 -29475076.69308 -22967591.46008  19356105.73708  19356106.30008
 -18278988.39108 -14243359.52708  20298780.40808  20298781.91108
 93 04 15 17 00 00.0000000  0  8 22 31 28 27 29 14 18 19
  -5204879.43608  -4055750.51808  21560158.92008  21560160.16908
  -4966358.68108  -3869884.63108  22828194.36508  22828200.04508
  -6626069.65708  -5163161.95408  22520850.03108  22520851.74808
  -3856409.83608  -3004993.55407  23163987.19908  23163991.65607
 -16713632.57208 -13023611.65808  19153326.84708  19153326.79508
  -4057032.79108  -3161333.60308  20492185.68508  20492188.12208
 -29699093.60808 -23142150.05708  19313476.71608  19313477.32108
 -18492076.83608 -14409402.38908  20258230.92108  20258232.47708
 93 04 15 17 02 00.0000000  0  8 22 31 28 27 29 14 18 19
  -4871607.97408  -3796058.63808  21623578.50008  21623579.73508
  -5326937.25308  -4150854.38208  22759578.41208  22759583.69008
  -6874335.57208  -5356615.61208  22473606.33508  22473608.30008
  -4197208.15608  -3270550.46407  23099135.34908  23099139.69507
 -16691105.39608 -13006058.07008  19157613.63308  19157613.60108
  -3705135.29308  -2887128.13108  20559149.91708  20559152.34208
 -29919196.00508 -23313658.40108  19271592.59008  19271593.12108
 -18701473.86308 -14572568.82308  20218383.98908  20218385.53008
 93 04 15 17 04 00.0000000  0  8 22 31 28 27 29 14 18 19
  -4534393.55708  -3533294.31908  21687748.32308  21687749.73908
  -5687981.79008  -4432187.24408  22690873.59208  22690878.62708
  -7118486.33808  -5546862.64408  22427145.91108  22427147.95108
  -4536922.56908  -3535262.74108  23034489.54008  23034493.87908
 -16663510.02508 -12984555.25008  19162864.90508  19162864.87708
  -3349069.36508  -2609674.55408  20626907.20408  20626909.87308
 -30135759.00109 -23482408.77408  19230382.07309  19230382.58108
 -18908039.44408 -14733528.92808  20179075.74608  20179077.22408
 93 04 15 17 06 00.0000000  0  8 22 31 28 27 29 14 18 19
  -4193166.84808  -3267403.56408  21752681.76308  21752683.10208
  -6049149.48008  -4713616.07808  22622144.96808  22622150.01408
  -7358307.72608  -5733736.11808  22381508.97808  22381511.07408
  -4875464.55608  -3799061.34608  22970066.89008  22970071.08008
 -16630597.83208 -12958909.45108  19169127.92608  19169127.93208
  -2988721.39308  -2328884.34408  20695479.62208  20695482.25908
 -30348134.34909 -23647896.04608  19189968.35609  19189968.88408
 -19111353.15508 -14891955.10908  20140386.41208  20140387.79508
 93 04 15 17 08 00.0000000  0  8 22 31 28 27 29 14 18 19
  -3847646.53208  -2998167.13508  21818432.17008  21818433.53408
  -6409703.69508  -4994566.84808  22553533.58708  22553538.38508
  -7592894.74008  -5916530.85508  22336868.16308  22336870.09008
  -5212152.59008  -4061415.27508  22905997.01208  22906001.23208
 -16591654.77408 -12928564.26908  19176538.61108  19176538.59208
  -2623778.31908  -2044513.57108  20764926.20108  20764929.09708
 -30555573.58509 -23809536.98508  19150493.88309  19150494.44208
 -19311443.00808 -15047869.21208  20102310.55908  20102311.85908
 93 04 15 17 10 00.0000000  0  8 22 31 28 29 14 27 18 19
  -3498115.42508  -2725805.41008  21884945.95508  21884947.30508
  -6769708.42208  -5275089.35208  22485026.45108  22485031.00308
  -7822144.53308  -6095166.75308  22293243.11108  22293245.08808
 -16546738.38508 -12893564.55508  19185085.95608  19185085.94608
  -2254483.35608  -1756751.74908  20835200.94608  20835203.98508
  -5547260.86708  -4322538.23908  22842227.67508  22842231.85108
 -30758503.81809 -23967664.42208  19111877.56309  19111878.11108
 -19507851.62308 -15200914.82408  20064935.15208  20064936.56908
 93 04 15 17 12 00.0000000  0  8 22 31 28 29 14 27 18 19
  -3144935.38508  -2450600.34908  21952154.09708  21952155.40908
  -7128978.39008  -5555039.18707  22416659.13908  22416663.38007
  -8046388.33108  -6269901.91708  22250570.85408  22250572.73508
 -16496164.04808 -12854156.04708  19194710.05908  19194710.01608
  -1881240.23108  -1465913.45908  20906226.95308  20906230.26808
  -5880751.45708  -4582400.63408  22778766.18908  22778770.27908
 -30956718.84909 -24122117.69308  19074158.49609  19074159.01608
 -19700632.37608 -15351133.53308  20028250.10708  20028251.47808
 93 04 15 17 14 00.0000000  0  8 14 22 31 28 29 27 18 19
  -1504685.37308  -1172494.64108  20977883.54308  20977886.90308
  -2788532.97208  -2172884.36608  22019975.34508  22019976.72308
  -7487376.02608  -5834309.36207  22348457.80808  22348462.03907
  -8265661.99708  -6440764.25208  22208844.22908  22208846.11208
 -16439989.70908 -12810383.90808  19205399.71508  19205399.75008
  -6213416.68408  -4841619.90208  22715461.71908  22715465.83308
 -31150277.71909 -24272942.79308  19037325.47409  19037325.98808
 -19890432.65508 -15499029.78208  19992132.30908  19992133.65808
 93 04 15 17 16 00.0000000  0  8 14 22 31 28 29 27 18 19
  -1124734.78508   -876429.83108  21050186.29408  21050189.65708
  -2429055.50708  -1892772.22708  22088381.89708  22088383.28208
  -7845122.18808  -6113071.91207  22280380.38008  22280384.71907
  -8479594.31608  -6607464.52808  22168134.14008  22168136.05308
 -16378679.13808 -12762609.51208  19217066.75108  19217066.78908
  -6544690.90608  -5099755.26108  22652422.08208  22652426.20908
 -31339131.03709 -24420101.22508  19001387.96109  19001388.45508
 -20077448.15308 -15644756.09208  19956544.36708  19956545.79908
 93 04 15 17 18 00.0000000  0  8 14 22 31 29 28 27 18 19
   -741828.19108   -578061.65108  21123051.44008  21123054.88708
  -2066655.89308  -1610383.10508  22157344.31908  22157345.94408
  -8201798.71108  -6391001.00307  22212506.34108  22212510.67907
 -16311746.51008 -12710454.28608  19229803.57108  19229803.72908
  -8687915.02808  -6769792.13108  22128491.86208  22128493.50008
  -6874666.14608  -5356878.49208  22589629.71408  22589633.57008
 -31523433.08309 -24563713.21408  18966316.44109  18966316.93608
 -20261427.92308 -15788116.90708  19921534.14008  19921535.50108
 93 04 15 17 20 00.0000000  0  8 14 22 31 29 28 27 18 19
   -355422.53908   -276966.95708  21196582.39108  21196586.03408
  -1701200.62408  -1325612.95708  22226888.35008  22226889.79108
  -8557007.25908  -6667786.25307  22144911.99008  22144915.95107
 -16238772.29708 -12653591.34808  19243690.24608  19243690.31208
  -8890236.97708  -6927445.42508  22089991.05608  22089992.61308
  -7203338.43108  -5612986.43408  22527085.15708  22527089.05208
 -31702665.04609 -24703374.48608  18932209.67209  18932210.22808
 -20442120.53408 -15928916.29908  19887149.44208  19887150.81608
 93 04 15 17 22 00.0000000  0  8 14 22 31 29 28 27 18 19
     33775.14608     26303.32508  21270644.70708  21270648.48808
  -1332945.29308  -1038660.91408  22296965.04908  22296966.67808
  -8910365.47008  -6943129.77007  22077669.87808  22077673.44707
 -16159724.88408 -12591996.04508  19258732.54608  19258732.62408
  -9086801.95108  -7080612.78408  22052585.90808  22052587.37108
  -7530129.52408  -5867628.50908  22464898.81008  22464902.41108
 -31876661.55409 -24838956.18908  18899099.23009  18899099.78908
 -20619442.03808 -16067088.83008  19853406.19808  19853407.61908
 93 04 15 17 24 00.0000000  0  8 14 22 29 31 28 27 18 19
    425743.42208    331732.45608  21345234.40308  21345238.40508
   -962060.30608   -749659.82308  22367542.26608  22367543.95308
 -16074715.13008 -12525754.77608  19274909.44608  19274909.47008
  -9261829.29308  -7216997.12507  22010788.19308  22010791.78207
  -9277390.30308  -7229123.04008  22016318.06008  22016319.55708
  -7855725.39208  -6121339.27208  22402939.64208  22402943.15408
 -32045160.04809 -24970253.72708  18867035.01509  18867035.56608
 -20793810.80208 -16202960.53808  19820224.99808  19820226.27008
 93 04 15 17 26 00.0000000  0  8 14 29 22 31 28 27 18 19
    820756.97408    639534.51808  21420403.50708  21420407.56008
 -15983545.73108 -12454713.80208  19292258.39208  19292258.50608
   -588413.41908   -458506.58508  22438645.10808  22438646.64408
  -9610808.47108  -7488928.41207  21944379.15708  21944382.72907
  -9461136.58208  -7372301.82608  21981352.18608  21981353.75008
  -8179788.91108  -6373855.97108  22341272.16708  22341275.55908
 -32208016.19909 -25097154.63508  18836044.57209  18836045.09708
 -20964813.78208 -16336209.56808  19787684.08608  19787685.45808
 93 04 15 17 28 00.0000000  0  8 14 29 22 31 28 27 18 19
   1218403.57908    949388.28008  21496073.74508  21496077.97208
 -15886183.28408 -12378847.08308  19310786.01108  19310786.17508
   -212265.21308   -165404.27308  22510223.74208  22510225.58008
  -9957421.20108  -7759015.75807  21878420.63108  21878424.02307
  -9638083.14408  -7510182.14408  21947680.23908  21947681.80308
  -8501938.22908  -6624881.09308  22279969.14908  22279972.34008
 -32365197.29909 -25219633.43408  18806134.02409  18806134.58308
 -21132528.41808 -16466896.25008  19755769.06708  19755770.39608
 93 04 15 17 30 00.0000000  0  8 14 29 22 31 28 27 18 19
   1618332.62108   1261020.53008  21572178.26108  21572182.77108
 -15782446.07208 -12298013.01508  19330526.59508  19330526.83908
    166348.76908    129619.36808  22582271.75608  22582273.62908
 -10301075.53708  -8026797.83307  21813024.99208  21813028.24607
  -9808589.36508  -7643044.01908  21915233.89608  21915235.39708
  -8822529.67408  -6874692.32108  22218962.32108  22218965.54008
 -32516455.68709 -25337497.12508  18777350.48809  18777351.01108
 -21297093.10008 -16595128.40808  19724453.41108  19724454.79408
 93 04 15 17 32 00.0000000  0  8 29 14 22 31 28 27 18 19
 -15672193.21708 -12212101.82808  19351507.12808  19351507.42408
   2020773.03208   1574609.71508  21648760.73508  21648765.28508
    547213.76908    426397.11108  22654748.10508  22654749.97408
 -10641686.55208  -8292208.52507  21748208.62808  21748211.71907
  -9971754.96208  -7770185.91408  21884184.57908  21884185.92208
  -9141174.84708  -7122986.98308  22158325.93708  22158329.09508
 -32661591.52009 -25450590.00108  18749732.11709  18749732.62408
 -21458055.96208 -16720553.96408  19693823.19808  19693824.42808
 93 04 15 17 34 00.0000000  0  8 29 14 22 31 28 27 18 19
 -15555837.82008 -12121435.40808  19373648.92108  19373649.21508
   2425322.46608   1889842.25208  21725744.48908  21725749.26708
    930104.07108    724752.98008  22727609.70508  22727611.86708
 -10979359.09808  -8555329.54708  21683951.34508  21683954.23708
 -10127907.11608  -7891862.79508  21854469.68708  21854470.86108
  -9458076.40008  -7369922.97208  22098021.28208  22098024.47508
 -32800813.15409 -25559074.42008  18723239.14409  18723239.66508
 -21615804.49209 -16843474.87808  19663804.64709  19663805.81208
 93 04 15 17 36 00.0000000  0  8 14 29 22 31 28 27 18 19
   2831252.73108   2206150.73008  21802990.94408  21802995.98308
 -15433194.12908 -12025869.02508  19396987.36208  19396987.70008
   1314877.05008   1024575.84608  22800829.85908  22800831.84608
 -11313667.24908  -8815829.00308  21620334.35208  21620337.18308
 -10276881.62708  -8007946.72508  21826120.71208  21826121.94008
  -9773557.41108  -7615752.06808  22037986.88308  22037990.00708
 -32933771.68809 -25662678.49708  18697937.96209  18697938.53308
 -21770590.64209 -16964087.42408  19634349.75109  19634350.91308
 93 04 15 17 38 00.0000000  0  8 14 29 22 31 28 27 18 19
   3239091.17808   2523946.06208  21880600.61808  21880605.77708
 -15303939.66708 -11925151.40208  19421583.81508  19421584.15408
   1701469.28808   1325816.37608  22874396.20108  22874398.06208
 -11644041.09008  -9073262.80008  21557465.97008  21557468.86308
 -10418433.46908  -8118246.77808  21799184.04808  21799185.18508
 -10087516.89608  -7860395.55408  21978242.34808  21978245.47708
 -33060463.00309 -25761399.01408  18673829.43209  18673829.99008
 -21922153.67808 -17082188.44108  19605508.22008  19605509.47908
 93 04 15 17 40 00.0000000  0  8 14 29 22 31 28 27 18 19
   3648315.74408   2842821.43408  21958474.16008  21958479.67008
 -15168813.54608 -11819858.46908  19447297.54908  19447297.95808
   2089291.47207   1628015.33507  22948196.43307  22948198.35407
 -11971030.34308  -9328059.24408  21495241.65708  21495244.46308
 -10553037.78708  -8223133.17408  21773569.84808  21773570.96408
 -10400058.43008  -8103934.13008  21918767.43508  21918770.45308
 -33180899.21309 -25855245.43508  18650911.21609  18650911.78308
 -22070906.69808 -17198099.84608  19577201.40008  19577202.68408
 93 04 15 17 42 00.0000000  0  8 14 22 29 31 28 27 18 19
   4058701.10608   3162601.29408  22036568.69808  22036574.45308
   2478432.61008   1931242.02808  23022247.72108  23022249.74208
 -15027524.23808 -11709763.05508  19474184.11508  19474184.55708
 -12294598.99508  -9580190.30408  21433668.32408  21433671.04108
 -10680221.19408  -8322237.05608  21749367.69608  21749368.79108
 -10711148.47308  -8346341.66408  21859568.86408  21859571.65608
 -33294911.73009 -25944086.38808  18629215.36209  18629215.86708
 -22216356.75509 -17311437.52708  19549523.09709  19549524.42308
 93 04 15 17 44 00.0000000  0  8 14 29 22 31 28 27 18 19
   4469921.77108   3483031.96208  22114822.22908  22114828.23708
 -14879470.68608 -11594396.80808  19502357.93408  19502358.35008
   2868931.98407   2235527.07508  23096557.22407  23096559.38308
 -12613745.92508  -9828875.83508  21372936.36408  21372938.99608
 -10799385.37508  -8415092.17408  21726691.36108  21726692.45308
 -11020306.63408  -8587243.87608  21800737.73008  21800740.68308
 -33402205.26209 -26027691.77308  18608798.08009  18608798.65108
 -22358730.32409 -17422377.92708  19522430.39309  19522431.49608
 93 04 15 17 46 00.0000000  0  8 14 22 29 31 28 27 18 19
   4881854.98808   3804017.79908  22193211.35908  22193217.61108
   3260235.71507   2540438.84207  23171020.08207  23171022.04907
 -14725373.44508 -11474321.20008  19531681.79308  19531682.25908
 -12928776.39508 -10074353.74308  21312987.77008  21312990.27208
 -10911219.50608  -8502235.59308  21705409.90208  21705411.04508
 -11328345.21708  -8827273.69208  21742119.69108  21742122.61008
 -33503357.28709 -26106511.56408  18589549.58709  18589550.07908
 -22498538.27409 -17531319.14008  19495825.80609  19495826.97808
 93 04 15 17 48 00.0000000  0  8 14 22 29 31 28 27 18 19
   5294480.90908   4125543.37708  22271732.16408  22271738.60908
   3652367.65707   2845996.06007  23245640.45107  23245642.50607
 -14565171.79308 -11349488.90708  19562167.17508  19562167.69508
 -13239468.34008 -10316450.97108  21253864.87108  21253867.07208
 -11015353.14308  -8583378.63308  21685593.86308  21685595.17508
 -11634904.27908  -9066150.63308  21683783.19808  21683785.99008
 -33597933.08009 -26180207.01508  18571552.36109  18571552.91308
 -22635394.69409 -17637960.47708  19469782.83209  19469784.01308
 93 04 15 17 50 00.0000000  0  8 14 22 29 31 28 27 18 19
   5707352.48508   4447260.33808  22350299.81708  22350306.70008
   4045260.59507   3152146.24907  23320405.51807  23320408.01807
 -14398916.29008 -11219939.36008  19593804.65008  19593805.23008
 -13545820.69808 -10555166.72208  21195567.52708  21195569.88308
 -11111647.19908  -8658412.90308  21667269.67008  21667270.90708
 -11939898.28908  -9303808.04508  21625744.67408  21625747.35208
 -33685540.14209 -26248472.28508  18554881.35409  18554881.85808
 -22769022.74609 -17742086.22708  19444354.22009  19444355.40908
 93 04 15 17 52 00.0000000  0  8 14 22 29 31 28 27 18 19
   6120431.55308   4769138.87908  22428907.16808  22428914.36608
   4438422.78607   3458506.20207  23395221.98907  23395224.33007
 -14226574.84208 -11085647.50808  19626600.26208  19626600.89408
 -13846978.26008 -10789834.60608  21138258.98508  21138261.07808
 -11200455.98608  -8727614.49408  21650369.81208  21650371.09308
 -12243787.41108  -9540604.50608  21567916.20908  21567918.80308
 -33766523.40909 -26311576.16008  18539470.75509  18539471.31508
 -22900304.07809 -17844383.32608  19419372.23509  19419373.44208
 93 04 15 17 54 00.0000000  0  6 31 22 29 28 18 19
 -14143254.02208 -11020698.52608  21081879.26008  21081881.30508
   4831786.78207   3765023.49707  23470076.84307  23470079.17107
 -14047964.75108 -10946470.99608  19660588.78208  19660589.48108
 -11281180.39908  -8790516.59108  21635008.44908  21635009.64708
 -33841058.05109 -26369655.14008  18525287.34109  18525287.90308
 -23029159.42409 -17944790.04908  19394851.74609  19394853.07608
 93 04 15 17 56 00.0000000  0  8 31 11 29 22 28 27 18 19
 -14434817.77208 -11247890.76108  21026396.29008  21026398.35208
         0.28117         0.29917  23216872.88717  23216879.80017
 -13863515.18308 -10802744.27808  19695688.56608  19695689.27908
   5225519.26807   4071827.94107  23545001.66707  23545004.06507
 -11353428.77208  -8846813.96908  21621259.88108  21621261.11008
         0.26018         0.27518  21452994.07818  21452996.61418
 -33908197.23109 -26421971.41508  18512511.20009  18512511.75308
 -23155012.36909 -18042857.24008  19370902.82109  19370903.99308
 93 04 15 17 58 00.0000000  0  8 28 27 11 29 22 31 18 19
 -11418190.90308  -8897277.92308  21608936.11308  21608937.32108
   -299915.80608   -233700.31508  21395921.79708  21395924.19608
   -363541.89008   -283278.28807  23147692.33208  23147698.62107
 -13673153.17408 -10654410.45408  19731913.41108  19731914.20008
   5619065.59707   4378487.29007  23619891.14507  23619893.48407
 -14721168.86708 -11471021.18408  20971905.24908  20971907.25808
 -33968931.10209 -26469296.54708  18500953.96609  18500954.51008
 -23278474.12809 -18139061.20408  19347408.79109  19347409.87308
 93 04 15 18 00 00.0000000  0  8 28 27 11 29 22 31 18 19
 -11475131.24108  -8941646.96008  21598100.72908  21598101.78008
   -598789.72008   -466588.83308  21339047.80408  21339050.19108
   -726234.66908   -565895.05607  23078673.62308  23078679.79307
 -13476997.97408 -10501562.47708  19769240.71708  19769241.59708
   6012294.10507   4684899.02807  23694720.20707  23694722.42207
 -15002163.78108 -11689977.98708  20918433.38208  20918435.42308
 -34023110.66509 -26511514.43508  18490643.97609  18490644.56508
 -23399167.15409 -18233107.68608  19324441.66909  19324442.78808
 93 04 15 18 02 00.0000000  0  8 28 27 11 29 22 31 18 19
 -11523544.89708  -8979371.85908  21588887.97508  21588889.11408
   -896141.43008   -698291.22208  21282463.43708  21282465.77808
  -1087461.00108   -847369.23207  23009933.73508  23009940.01207
 -13274345.70108 -10343651.84208  19807804.33008  19807805.23108
   6405473.24607   4991272.29207  23769539.67207  23769541.87907
 -15277089.35408 -11904205.43408  20866116.69608  20866118.65008
 -34069454.81009 -26547626.80108  18481824.96009  18481825.56708
 -23517284.53409 -18325147.18608  19301964.62409  19301965.72708
 93 04 15 18 04 00.0000000  0  8 28 27 11 29 22 31 18 19
 -11563373.44808  -9010407.05508  21581308.85308  21581309.80808
  -1191736.02508   -928624.46008  21226213.59008  21226215.84508
  -1446746.47108  -1127331.08407  22941563.48608  22941569.20607
 -13065283.96108 -10180746.83008  19847587.61908  19847588.55608
   6798733.33607   5297708.67907  23844374.56407  23844377.05607
 -15545962.70608 -12113716.89208  20814951.74608  20814953.64408
 -34108180.59709 -26577802.78308  18474455.78609  18474456.37208
 -23632526.02809 -18414945.74108  19280034.96209  19280035.97608
 93 04 15 18 06 00.0000000  0  8 28 11 27 22 29 31 18 19
 -11594850.34208  -9034934.47208  21575318.99708  21575319.92708
  -1803955.02508  -1405674.57808  22873588.11408  22873593.89108
  -1485645.04708  -1157644.26108  21170284.16608  21170286.50508
   7191866.65107   5604046.27907  23919185.32007  23919187.77607
 -12850124.74808 -10013090.54408  19888531.25308  19888532.18408
 -15808439.93308 -12318244.35608  20765003.68208  20765005.67808
 -34139553.58509 -26602249.30208  18468485.68709  18468486.34808
 -23744461.77009 -18502168.36108  19258734.22109  19258735.33208
 93 04 15 18 08 00.0000000  0  8 28 27 11 22 29 31 18 19
 -11617691.91308  -9052733.07208  21570972.42208  21570973.28708
  -1778033.70508  -1385479.35708  21114644.29608  21114646.60408
  -2159007.10708  -1682337.77108  22806023.48408  22806028.96408
   7584612.60807   5910081.98407  23993922.59107  23993924.91807
 -12628837.73508  -9840659.35408  19930640.97708  19930642.02508
 -16064703.73908 -12517930.21908  20716238.17208  20716239.92408
 -34163381.58409 -26620816.61908  18463951.40809  18463951.98808
 -23853688.45409 -18587280.04608  19237949.11309  19237950.20108
 93 04 15 18 10 00.0000000  0  8 28 11 27 29 22 31 18 19
 -11632176.48808  -9064019.73708  21568216.05808  21568216.99508
  -2512086.85508  -1957464.13807  22738834.27008  22738839.19607
  -2069325.08008  -1612459.42908  21059213.38208  21059215.41708
 -12401897.79908  -9663823.29208  19973826.43708  19973827.51608
   7976448.94007   6215408.97907  24068486.55307  24068488.79407
 -16314575.36108 -12712635.16808  20668689.03008  20668690.84408
 -34179804.36609 -26633613.64708  18460826.33109  18460826.90108
 -23960738.76209 -18670695.87108  19217578.06909  19217579.16508
 93 04 15 18 12 00.0000000  0  7 28 11 18 19 29 31 27
 -11638645.37908  -9069060.40608  21566984.85608  21566986.00508
  -2863163.65308  -2231029.82208  22672026.01508  22672030.95908
 -34189486.79909 -26641158.45608  18458983.81309  18458984.43908
 -24065343.13209 -18752205.76108  19197672.52809  19197673.61208
 -12169471.69408  -9482712.32208  20018055.82708  20018056.88908
 -16558186.89908 -12902462.13508  20622331.03308  20622332.77408
  -2359907.86608  -1838887.37508  21003917.14208  21003919.32408
 93 04 15 18 14 00.0000000  0  8 28 11 02 18 19 29 31 27
 -11636485.03108  -9067377.02608  21567396.14808  21567397.01108
  -3211510.72508  -2502468.51608  22605737.33908  22605742.05408
         0.49618         0.01618  22735599.77618  22735606.48018
 -34191612.49909 -26642814.89908  18458579.34109  18458580.01508
 -24167236.46009 -18831603.12208  19178282.80509  19178283.98308
 -11931199.18808  -9297045.73808  20063397.81208  20063398.97808
 -16795033.99608 -13087018.12308  20577260.53608  20577262.12208
  -2648782.69608  -2063984.42208  20948945.86208  20948947.92308
 93 04 15 18 16 00.0000000  0  8 28 11 02 18 19 29 31 27
 -11626003.21808  -9059209.38708  21569390.74508  21569391.73108
  -3556690.82608  -2771439.48308  22540051.34808  22540055.88608
   -403720.96908   -314587.47608  22658773.63608  22658780.37008
 -34185611.45209 -26638138.81408  18459721.30809  18459722.00508
 -24266511.68609 -18908960.42408  19159391.28009  19159392.46708
 -11686959.59908  -9106729.48208  20109875.26708  20109876.60408
 -17024793.84908 -13266051.57208  20533538.37208  20533540.12008
  -2935907.28908  -2287717.63708  20894307.70108  20894309.78908
 93 04 15 18 18 00.0000000  0  8 28 11 02 18 19 29 31 27
 -11606558.13808  -9044057.38608  21573090.86908  21573091.90108
  -3898577.24708  -3037843.97807  22474991.96708  22474996.65707
   -804970.29508   -627248.66308  22582418.00608  22582424.35608
 -34172053.12009 -26627573.93008  18462301.47609  18462302.14908
 -24362715.59609 -18983924.50508  19141084.32309  19141085.43608
 -11436796.09408  -8911797.19708  20157480.06908  20157481.43708
 -17247124.68208 -13439296.18008  20491230.15408  20491231.77608
  -3221507.99808  -2510263.41308  20839959.62708  20839961.47708
 93 04 15 18 20 00.0000000  0  8 28 11 02 18 19 29 31 27
 -11578746.89008  -9022386.28708  21578383.14908  21578384.24608
  -4237482.53608  -3301925.46408  22410500.06608  22410504.45108
  -1203754.04308   -937988.68208  22506531.55508  22506537.54808
 -34151027.46309 -26611190.36608  18466302.48509  18466303.17808
 -24456799.24509 -19057236.41808  19123180.89609  19123181.97008
 -11181078.35308  -8712536.95508  20206141.80408  20206143.25608
 -17462091.05608 -13606802.23708  20450323.21908  20450324.74708
  -3506234.92808  -2732128.35908  20785777.70108  20785779.47508
 93 04 15 18 22 00.0000000  0  8 28 11 02 18 19 29 31 27
 -11544583.86408  -8995765.76908  21584884.20208  21584885.30708
  -4574928.94108  -3564870.16708  22346285.65208  22346290.24708
  -1601957.54008  -1248276.58508  22430755.66308  22430761.59008
 -34124426.23309 -26590462.19908  18471364.62109  18471365.38208
 -24550182.83109 -19130002.82908  19105410.55609  19105411.66208
 -10921724.57408  -8510443.45108  20255495.41408  20255496.96208
 -17672077.65108 -13770427.95108  20410363.99608  20410365.29408
  -3791612.58508  -2954500.38908  20731471.94508  20731473.66108
 93 04 15 18 24 00.0000000  0  8 11 02 28 18 19 29 31 27
  -4907565.78608  -3824067.17608  22282986.50608  22282990.98108
  -1996405.62408  -1555638.19108  22355694.11008  22355700.16008
 -11500789.21008  -8961640.07108  21593218.22608  21593219.30808
 -34088976.57209 -26562839.15308  18478110.52709  18478111.21808
 -24639999.64409 -19199989.93608  19088318.96009  19088320.03908
 -10656050.77908  -8303425.25108  20306051.72808  20306053.39208
 -17873444.72608 -13927337.15208  20372044.94408  20372046.26708
  -4074466.26808  -3174905.69808  20677646.67808  20677648.46208
 93 04 15 18 26 00.0000000  0  8 11 02 28 18 19 29 31 27
  -5234919.43808  -4079147.43108  22220693.01008  22220697.11508
  -2386927.91708  -1859940.71608  22281379.90508  22281385.78008
 -11447206.92008  -8919887.65008  21603414.62908  21603415.60508
 -34044502.07009 -26528183.77008  18486573.80909  18486574.52708
 -24726234.19609 -19267185.67408  19071909.02909  19071910.18108
 -10383722.62208  -8091221.83808  20357874.31608  20357875.94708
 -18065781.46908 -14077209.75808  20335444.35008  20335445.64408
  -4354554.49508  -3393156.10308  20624347.37708  20624349.22108
 93 04 15 18 28 00.0000000  0  8 11 02 28 18 19 29 31 27
  -5557597.82808  -4330584.66208  22159288.92108  22159293.00108
  -2774025.03508  -2161574.28708  22207717.37708  22207722.98708
 -11384548.10808  -8871062.61508  21615338.05208  21615338.87208
 -33991886.14709 -26487184.42708  18496586.37009  18496587.10208
 -24809344.01509 -19331946.56408  19056093.79409  19056094.84608
 -10105394.16408  -7874342.89608  20410838.74308  20410840.40608
 -18249829.00608 -14220623.25308  20300421.23008  20300422.33608
  -4632821.55308  -3609987.42408  20571394.88508  20571396.56908
 93 04 15 18 30 00.0000000  0  8 11 02 28 18 19 29 31 27
  -5875309.83208  -4578151.96308  22098829.91208  22098833.99908
  -3157732.14308  -2460566.31208  22134699.81808  22134705.56308
 -11313194.92708  -8815462.75608  21628916.03308  21628917.17808
 -33930862.14909 -26439633.33708  18508198.86909  18508199.62108
 -24889131.82309 -19394118.86508  19040910.58909  19040911.65508
  -9821232.61108  -7652918.67308  20464913.21808  20464915.06208
 -18425544.31208 -14357544.10508  20266983.53608  20266984.77508
  -4909238.34008  -3825376.96908  20518794.44808  20518796.02108
 93 04 15 18 32 00.0000000  0  8 11 02 28 18 19 29 31 27
  -6187396.24508  -4821335.70908  22039441.62108  22039445.51808
  -3537253.60208  -2756296.85008  22062479.09108  22062484.50208
 -11232366.84208  -8752479.87108  21644297.21608  21644298.44108
 -33861003.00409 -26385197.72208  18521492.70409  18521493.53308
 -24965533.06609 -19453652.29808  19026371.93609  19026373.11208
  -9530710.71608  -7426538.35508  20520198.01808  20520199.93908
 -18591932.34708 -14487196.95808  20235320.81108  20235321.98708
  -5183348.01908  -4038968.77208  20466632.90408  20466634.55808
 93 04 15 18 34 00.0000000  0  8 11 02 28 18 19 29 31 27
  -6494069.30808  -5060301.30308  21981083.20408  21981087.03208
  -3912904.65708  -3049011.52508  21990994.58608  21991000.08608
 -11142271.68808  -8682275.88708  21661441.70308  21661442.94008
 -33782739.22209 -26324213.04408  18536385.87709  18536386.69608
 -25038678.74909 -19510648.92708  19012452.76109  19012453.90608
  -9234800.31308  -7195959.21008  20576508.22508  20576510.24508
 -18749421.43908 -14609915.58508  20205351.62508  20205352.67308
  -5455198.58908  -4250800.21808  20414901.41808  20414902.99508
 93 04 15 18 36 00.0000000  0  8 11 02 28 18 19 29 31 27
  -6795159.26308  -5294916.47608  21923787.39008  21923791.07708
  -4284998.83708  -3338954.56808  21920187.09208  21920192.29708
 -11043347.19008  -8605191.89908  21680266.55308  21680267.57508
 -33696095.02109 -26256698.17108  18552873.85809  18552874.66208
 -25108459.50609 -19565023.53908  18999173.93109  18999175.05908
  -8933179.89708  -6960930.71608  20633904.90708  20633907.04508
 -18898006.80308 -14725696.25708  20177076.59308  20177077.66608
  -5725044.71808  -4461069.74408  20363551.16308  20363552.75508
 93 04 15 18 38 00.0000000  0  8 11 02 28 18 19 29 31 27
  -7090272.16108  -5524874.20408  21867629.07408  21867632.54408
  -4653268.81708  -3625917.67508  21850107.07308  21850112.32508
 -10935576.87308  -8521215.07008  21700774.39108  21700775.55208
 -33601187.68209 -26182744.48208  18570934.16709  18570935.00508
 -25175268.68109 -19617082.61408  18986460.54709  18986461.68508
  -8625705.07408  -6721340.34508  20692415.81408  20692417.95108
 -19037119.29108 -14834095.48208  20150604.28808  20150605.39708
  -5992591.34208  -4669547.47208  20312638.57608  20312640.15508
 93 04 15 18 40 00.0000000  0  8 11 02 28 18 29 31 27 19
  -7379149.41008  -5749972.96808  21812657.28708  21812660.53108
  -5017251.29108  -3909539.83208  21780843.08108  21780848.35708
 -10818742.15008  -8430175.06308  21723007.48708  21723008.70808
 -33497592.74009 -26102021.24608  18590647.71209  18590648.57208
  -8312358.93508  -6477174.93608  20752043.82008  20752046.20508
 -19167014.48308 -14935312.39108  20125885.96608  20125886.98808
  -6257852.04908  -4876243.98608  20262161.08408  20262162.60408
 -25238512.20809 -19666363.26508  18974425.77109  18974426.77708
 93 04 15 18 42 00.0000000  0  8 11 02 28 18 29 31 27 19
  -7661799.90408  -5970219.73408  21758870.34008  21758873.65908
  -5377074.20608  -4189920.78508  21712370.83308  21712375.77908
 -10693122.01708  -8332289.29608  21746912.16608  21746913.37508
 -33385501.33209 -26014677.39708  18611978.07309  18611978.94808
  -7993771.02808  -6228925.05108  20812669.42408  20812671.79908
 -19287578.40508 -15029258.19908  20102943.36008  20102944.34508
  -6521372.13608  -5081584.17408  20212014.84508  20212016.27808
 -25298444.61409 -19713063.82408  18963020.95509  18963022.04108
 93 04 15 18 44 00.0000000  0  8 11 02 28 18 29 31 27 19
  -7937952.64308  -6185403.29808  21706319.91708  21706323.24708
  -5733169.84608  -4467397.44508  21644607.71108  21644612.57208
 -10558592.61208  -8227461.25208  21772512.42708  21772513.59608
 -33265125.19409 -25920877.92208  18634884.95509  18634885.82608
  -7670185.53708  -5976780.95908  20874246.01608  20874248.58708
 -19398936.30008 -15116030.48608  20081752.65308  20081753.65908
  -6782703.67808  -5285218.99108  20162285.04308  20162286.38708
 -25355356.65109 -19757410.84808  18952190.94409  18952192.00608
 93 04 15 18 46 00.0000000  0  8 11 02 28 18 29 31 27 19
  -8207954.46408  -6395794.00308  21654940.01508  21654943.25008
  -6085526.95608  -4741960.98508  21577556.02908  21577560.71908
 -10415740.24908  -8116147.80108  21799696.35508  21799697.72108
 -33136874.54109 -25820942.45908  18659290.33209  18659291.30908
  -7341882.23208  -5720960.66408  20936720.50608  20936723.14708
 -19501132.04808 -15195663.42908  20062305.30508  20062306.37808
  -7042189.73408  -5487415.80308  20112906.37908  20112907.70908
 -25409690.78309 -19799749.11208  18941851.48309  18941852.61708
 93 04 15 18 48 00.0000000  0  8 29 11 02 28 18 31 27 19
  -7008617.26708  -5461274.15108  21000139.05408  21000141.77708
  -8471473.18508  -6601132.97008  21604794.01208  21604797.02808
  -6433842.69508  -5013375.42708  21511273.33108  21511277.98208
 -10264971.26308  -7998665.56608  21828386.87408  21828388.01008
 -33000567.78509 -25714729.51908  18685228.72509  18685229.71608
 -19594167.83408 -15268158.74308  20044601.15508  20044602.09208
  -7299867.56108  -5688203.58008  20063871.83608  20063873.16908
 -25461032.04509 -19839755.26908  18932081.55809  18932082.68408
 93 04 15 18 50 00.0000000  0  8 29 11 02 28 18 31 27 19
  -6670511.96508  -5197815.96008  21064478.70208  21064481.56908
  -8728220.32308  -6801195.39708  21555936.46208  21555939.47008
  -6778557.10208  -5281983.61208  21445676.14908  21445680.63608
 -10105842.25408  -7874669.00108  21858668.24508  21858669.37208
 -32856294.81709 -25602309.14108  18712683.01709  18712684.07308
 -19678023.36708 -15333500.60708  20028643.84008  20028644.83408
  -7555553.36908  -5887439.15308  20015216.32208  20015217.66408
 -25509246.78309 -19877325.17808  18922906.55909  18922907.69508
 93 04 15 18 52 00.0000000  0  8 29 11 02 28 31 27 18 19
  -6328119.08508  -4931016.84008  21129634.26608  21129637.26308
  -8978244.02008  -6996018.77508  21508358.27308  21508361.32108
  -7119363.02208  -5547546.20108  21380822.58908  21380826.98308
  -9938746.94108  -7744464.95008  21890465.32608  21890466.59908
 -19752738.18808 -15391719.84108  20014426.09808  20014426.97808
  -7809637.79508  -6085426.90408  19966865.50908  19966866.78308
 -32704328.45908 -25483893.94008  18741601.35108  18741602.46108
 -25554700.04409 -19912743.29208  18914257.08009  18914258.20108
 93 04 15 18 54 00.0000000  0  8 29 11 02 28 31 27 18 19
  -5981279.10908  -4660752.44908  21195636.08408  21195639.30008
  -9221110.64808  -7185265.23308  21462141.99608  21462145.12308
  -7455895.14808  -5809778.57808  21316782.20308  21316786.43208
  -9763539.93808  -7607940.11308  21923805.97008  21923807.35008
 -19817783.81508 -15442404.64408  20002048.23708  20002049.01708
  -8061682.96408  -6281825.62808  19918902.87108  19918904.13408
 -32544477.90508 -25359335.21608  18772020.08408  18772021.15208
 -25597273.56909 -19945917.45408  18906155.55109  18906156.72008
 93 04 15 18 56 00.0000000  0  8 29 11 02 28 31 27 18 19
  -5629486.59908  -4386629.05008  21262580.40508  21262583.79808
  -9456281.55708  -7368515.07508  21417390.40808  21417393.11408
  -7788135.50108  -6068666.72708  21253558.56508  21253562.88808
  -9579958.06608  -7464889.42108  21958740.89408  21958742.11108
 -19872803.22108 -15485276.82208  19991578.35908  19991579.23808
  -8311402.09008  -6476411.85808  19871382.89308  19871384.08608
 -32376335.82309 -25228315.56008  18804016.62609  18804017.70008
 -25636686.40809 -19976628.74008  18898655.58109  18898656.70008
 93 04 15 18 58 00.0000000  0  8 29 11 02 28 31 27 18 19
  -5273288.30308  -4109072.59208  21330363.07308  21330366.68808
  -9683710.97908  -7545732.57408  21374111.80208  21374114.67708
  -8115988.18208  -6324135.95008  21191170.25308  21191174.15008
  -9388334.47908  -7315572.46108  21995205.36608  21995206.78608
 -19917941.69808 -15520449.58208  19982988.70208  19982989.53508
  -8558954.45108  -6669309.69508  19824275.15508  19824276.26008
 -32199866.97108 -25090807.52108  18837597.56008  18837598.75008
 -25672604.85409 -20004617.13208  18891820.59109  18891821.65208
 93 04 15 19 00 00.0000000  0  8 29 11 02 28 31 27 18 19
  -4912610.66408  -3828025.74508  21398998.26508  21399002.07608
  -9903172.89208  -7716741.64308  21332349.41608  21332352.06408
  -8439185.49108  -6575977.61608  21129667.54208  21129671.42608
  -9188574.22508  -7159915.25208  22033218.69708  22033220.16908
 -19953131.51608 -15547870.14308  19976292.28708  19976293.13708
  -8804247.04008  -6860446.67808  19777597.40508  19777598.65608
 -32015582.18008 -24947209.13708  18872665.87208  18872667.14608
 -25705018.50909 -20029874.52008  18885652.40909  18885653.52908
 93 04 15 19 02 00.0000000  0  8 29 11 02 28 31 27 18 19
  -4547664.05208  -3543652.43808  21468445.91508  21468449.85308
 -10114511.48608  -7881420.86008  21292132.80808  21292135.49808
  -8758027.80008  -6824425.75908  21068993.51408  21068997.35608
  -8980701.24808  -6997936.43808  22072775.47208  22072777.18708
 -19978455.70608 -15567603.22908  19971473.19108  19971473.92908
  -9046977.23708  -7049586.98608  19731407.37008  19731408.52008
 -31823283.55708 -24797366.21308  18909259.31608  18909260.54608
 -25733916.15509 -20052392.15208  18880153.32309  18880154.45308
 93 04 15 19 04 00.0000000  0  8 29 11 28 02 31 27 18 19
  -4178758.69808  -3256194.42408  21538646.82608  21538650.86708
 -10317829.68908  -8039850.42108  21253442.52208  21253445.30708
  -8765329.91808  -6830114.75408  22113759.63908  22113761.28708
  -9072632.22208  -7069571.66408  21009125.93208  21009129.73008
 -19994116.80508 -15579806.63108  19968492.92208  19968493.73708
  -9287233.66108  -7236799.68708  19685688.01708  19685689.11908
 -31623150.25608 -24641418.34908  18947343.53208  18947344.79808
 -25759660.99609 -20072453.05208  18875254.24709  18875255.30208
 93 04 15 19 06 00.0000000  0  8 29 11 28 02 31 27 18 19
  -3806200.58608  -2965890.16008  21609542.79808  21609547.02508
 -10513165.30608  -8192059.79408  21216271.18208  21216273.84908
  -8542797.60808  -6656713.09008  22156106.46208  22156107.67008
  -9382829.81408  -7311283.68708  20950097.02608  20950100.52008
 -20000266.12808 -15584598.26908  19967322.74808  19967323.41908
  -9525549.89808  -7422500.56308  19640337.86808  19640339.02308
 -31415480.91308 -24479598.27208  18986861.79808  18986863.08208
 -25782774.52109 -20090463.58408  18870855.97909  18870857.04408
 93 04 15 19 08 00.0000000  0  8 29 11 28 02 31 27 18 19
  -3430288.92208  -2672972.81208  21681077.28708  21681081.42308
 -10700472.77408  -8338013.51108  21180627.65108  21180630.31908
  -8313332.87008  -6477909.55008  22199772.19408  22199773.76208
  -9688979.74308  -7549841.69008  20891838.36908  20891841.77508
 -19996525.44308 -15581683.40408  19968034.56108  19968035.29408
  -9762220.55008  -7606919.15308  19595300.84108  19595301.89008
 -31200747.92308 -24312274.05508  19027724.28208  19027725.60008
 -25802836.79109 -20106096.50908  18867038.26209  18867039.29808
 93 04 15 19 10 00.0000000  0  8 29 11 28 02 31 27 18 19
  -3050754.42508  -2377232.53908  21753300.75308  21753305.39508
 -10879509.28708  -8477522.30608  21146558.06208  21146560.63808
  -8076675.80208  -6293501.58808  22244806.78708  22244808.27508
  -9991109.92508  -7785267.45608  20834344.62608  20834348.07208
 -19983369.30208 -15571431.83108  19970538.12708  19970538.88308
  -9996972.78008  -7789842.87308  19550628.95408  19550629.92608
 -30978504.69108 -24139097.70708  19070015.94408  19070017.29708
 -25819856.92109 -20119358.93708  18863799.40509  18863800.47708
 93 04 15 19 12 00.0000000  0  8 11 29 28 02 31 27 18 19
 -11050186.84608  -8610517.65108  21114079.07908  21114081.60408
  -2668075.49708  -2079042.08408  21826123.02908  21826127.60008
  -7833071.72208  -6103680.40308  22291163.14608  22291164.56108
 -10289088.17708  -8017457.95508  20777641.06308  20777644.45608
 -19960894.45808 -15553918.92408  19974814.93308  19974815.62408
 -10229382.25608  -7970941.06508  19506402.74408  19506403.75408
 -30749298.61808 -23960495.77408  19113632.54708  19113633.92708
 -25833801.74509 -20130225.02008  18861145.69909  18861146.82108
 93 04 15 19 14 00.0000000  0  8 11 29 28 02 31 27 18 19
 -11212282.07908  -8736825.44808  21083233.27708  21083235.76908
  -2282317.82308  -1778452.62908  21899530.97008  21899535.78508
  -7582689.65608  -5908577.64808  22338809.31308  22338810.93908
 -10582656.53808  -8246212.19808  20721776.57608  20721779.85108
 -19928604.05308 -15528757.53908  19980959.48408  19980960.24108
 -10459464.11308  -8150225.54508  19462619.67608  19462620.59208
 -30513055.42108 -23776410.36908  19158588.28008  19158589.73808
 -25844793.05309 -20138789.66308  18859054.20609  18859055.23308
 93 04 15 19 16 00.0000000  0  8 11 29 28 02 31 27 18 19
 -11365535.68408  -8856243.70808  21054070.12208  21054072.44308
  -1893439.78808  -1475431.74908  21973532.67108  21973537.81608
  -7325508.64607  -5708177.03507  22387749.22007  22387751.00307
 -10871488.77108  -8471275.92908  20666813.37208  20666816.69608
 -19886783.07608 -15496169.74108  19988917.71108  19988918.49908
 -10687350.79108  -8327799.48808  19419254.22908  19419255.08408
 -30269583.89308 -23586692.50308  19204919.57308  19204921.16008
 -25852402.74309 -20144719.28608  18857606.07009  18857607.11308
 93 04 15 19 18 00.0000000  0  8 11 29 28 02 31 27 18 19
 -11509976.83208  -8968795.10008  21026583.65808  21026586.09608
  -1501631.11708  -1170127.30208  22048092.02708  22048097.54008
  -7061743.96008  -5502646.31007  22437942.34008  22437943.93107
 -11156156.68808  -8693094.74608  20612642.59708  20612645.78108
 -19835201.96908 -15455976.64808  19998733.22508  19998734.03308
 -10912637.35808  -8503347.37008  19376383.52208  19376384.49808
 -30018933.25608 -23391380.53008  19252616.89108  19252618.60108
 -25856838.95109 -20148176.07008  18856761.88709  18856762.97208
 93 04 15 19 20 00.0000000  0  8 11 29 28 02 31 27 18 19
 -11645440.73908  -9074351.28008  21000805.79008  21000808.01008
  -1106834.79908   -862494.85708  22123220.12008  22123225.87008
  -6791703.44807  -5292225.31407  22489329.29307  22489331.24707
 -11436645.00408  -8911656.72608  20559267.15408  20559270.31508
 -19774140.69608 -15408396.41908  20010352.79608  20010353.54108
 -11135771.73908  -8677218.23508  19333922.38308  19333923.30008
 -29761414.94208 -23190717.11908  19301621.17308  19301622.96108
 -25858105.09109 -20149162.67808  18856520.95509  18856522.04308
 93 04 15 19 22 00.0000000  0  8 29 28 11 02 31 27 18 19
   -709512.00208   -552893.77208  22198829.12808  22198834.88308
  -6515505.42607  -5077006.27007  22541888.16807  22541890.07607
 -11771873.63108  -9172870.31808  20976746.32808  20976748.51708
 -11712516.73108  -9126621.39208  20506770.33208  20506773.24908
 -19703494.28408 -15353347.25808  20023796.37108  20023797.10108
 -11356904.44708  -8849529.35408  19291842.12808  19291843.09908
 -29497377.55108 -22984973.92408  19351865.93108  19351867.71608
 -25856114.67209 -20147611.69708  18856899.74809  18856900.80208
 93 04 15 19 24 00.0000000  0  8 29 28 11 02 31 27 18 19
   -309725.17208   -241372.69908  22274906.81008  22274912.94108
  -6233222.76507  -4857045.91907  22595604.99607  22595607.07707
 -11889245.95108  -9264329.19008  20954410.97308  20954413.22908
 -11983974.33108  -9338146.52508  20455113.51208  20455116.34208
 -19623568.46308 -15291067.39708  20039005.78208  20039006.43208
 -11575398.13408  -9019784.10408  19250264.13208  19250265.00308
 -29226576.95808 -22773960.70208  19403397.87208  19403399.74708
 -25851230.31609 -20143805.70008  18857829.16009  18857830.21808
 93 04 15 19 26 00.0000000  0  8 29 28 11 02 31 27 18 19
     91841.13808     71534.89308  22351323.24108  22351329.79908
  -5945230.82807  -4632636.78507  22650408.26007  22650410.06307
 -11997895.18008  -9348990.85508  20933735.61208  20933737.93808
 -12251786.21808  -9546830.84808  20404150.35808  20404153.16308
 -19534665.77008 -15221792.57708  20055923.41008  20055924.03208
 -11791653.01708  -9188294.34808  19209112.15508  19209113.00308
 -28949929.97608 -22558391.87708  19456042.18208  19456044.13308
 -25843341.16209 -20137658.31308  18859330.45909  18859331.53608
 93 04 15 19 28 00.0000000  0  8 29 28 11 02 31 27 18 19
    495219.78008    385854.61908  22428084.54208  22428091.50508
  -5651867.29707  -4404042.01108  22706233.70807  22706235.76208
 -12097512.46808  -9426614.66008  20914779.00508  20914781.34108
 -12515418.70208  -9752258.50708  20353982.52308  20353985.33908
 -19436655.70208 -15145421.11708  20074574.13708  20074574.83408
 -12005853.38108  -9355203.67108  19168351.13008  19168352.04108
 -28667242.77008 -22338116.37608  19509835.96708  19509837.83408
 -25832386.65709 -20129122.34808  18861414.98309  18861416.11708
 93 04 15 19 30 00.0000000  0  8 29 28 11 02 31 27 18 19
    900994.36608    702041.25108  22505301.73108  22505309.22708
  -5352878.67408  -4171064.06007  22763129.65508  22763131.26007
 -12187550.49408  -9496774.09108  20897645.27008  20897647.61108
 -12774484.20408  -9954127.47608  20304683.79008  20304686.61108
 -19329370.47408 -15061822.26308  20094989.86608  20094990.59608
 -12217428.43708  -9520067.30108  19128089.68608  19128090.58608
 -28378231.11508 -22112912.73808  19564833.31808  19564835.20708
 -25817837.29109 -20117785.20108  18864183.71609  18864184.78208
 93 04 15 19 32 00.0000000  0  8 29 28 11 02 31 27 18 19
   1308740.53608   1019764.18307  22582894.25208  22582902.07307
  -5048204.99207  -3933656.14207  22821107.00507  22821108.87307
 -12267855.65408  -9559349.49308  20882363.75508  20882366.10408
 -13028949.67208 -10152412.01408  20256260.45208  20256263.18208
 -19212596.17308 -14970829.33508  20117211.33308  20117212.05908
 -12426020.48608  -9682606.50608  19088395.95808  19088396.82908
 -28082599.72108 -21882550.88508  19621090.25808  19621092.29708
 -25799949.80109 -20103846.92608  18867587.62409  18867588.70208
 93 04 15 19 34 00.0000000  0  8 29 28 11 02 31 27 18 19
   1718778.52307   1339272.78907  22660922.94507  22660931.32407
  -4737713.24707  -3691714.68407  22880191.53207  22880193.73507
 -12338243.46608  -9614197.08408  20868969.30108  20868971.56408
 -13278248.09908 -10346670.29508  20208820.46908  20208823.00508
 -19085928.24408 -14872127.09408  20141315.49208  20141316.16808
 -12631482.51508  -9842706.74408  19049297.81308  19049298.64508
 -27780311.27408 -21647001.73208  19678614.03308  19678616.09108
 -25778177.24809 -20086881.32708  18871730.81609  18871731.91908
 93 04 15 19 36 00.0000000  0  8 29 28 11 02 31 27 18 19
   2130924.16308   1660423.52607  22739353.15008  22739361.55707
  -4421480.71707  -3445299.90007  22940368.75507  22940371.02307
 -12398585.62708  -9661216.91808  20857486.58208  20857488.85408
 -13522695.37508 -10537148.48508  20162303.48108  20162306.05808
 -18950121.50908 -14766303.69108  20167158.60508  20167159.39208
 -12833779.54708 -10000340.74108  19010801.90808  19010802.76808
 -27471889.61508 -21406673.45308  19737304.95608  19737307.12408
 -25752371.44309 -20066772.93408  18876641.57609  18876642.66208
 93 04 15 19 38 00.0000000  0  8 29 28 11 02 31 27 18 19
   2544705.98807   1982849.13407  22818094.43207  22818103.35907
  -4100218.33107  -3194965.71207  23001503.11507  23001505.21907
 -12449153.50508  -9700620.42308  20847863.73308  20847866.10208
 -13762973.60708 -10724378.06708  20116579.94608  20116582.46708
 -18805295.83008 -14653452.55508  20194718.10408  20194718.77708
 -13033209.46308 -10155740.62808  18972851.66108  18972852.47008
 -27157474.23008 -21161674.73608  19797136.40108  19797138.70108
 -25723098.24509 -20043962.67808  18882212.06309  18882213.12308
 93 04 15 19 40 00.0000000  0  8 29 28 11 02 31 27 18 19
   2959748.54607   2306257.15507  22897075.87007  22897085.29607
  -3774473.08807  -2941138.44507  23063490.61207  23063492.82907
 -12490214.00408  -9732615.60408  20840050.27908  20840052.55208
 -13998984.49808 -10908282.46408  20071668.42908  20071670.78808
 -18651633.52208 -14533715.74108  20223959.02308  20223959.82708
 -13229733.48608 -10308876.19708  18935454.37608  18935455.04908
 -26837484.45808 -20912332.34908  19858028.56608  19858031.01308
 -25690346.29809 -20018441.71608  18888444.50709  18888445.70208
 93 04 15 19 42 00.0000000  0  8 29 28 11 02 31 27 18 19
   3376153.46407   2630726.70207  22976316.60707  22976326.29707
  -3443973.00407  -2683606.03107  23126382.82307  23126384.99707
 -12521416.42808  -9756929.14708  20834112.65508  20834114.80608
 -14230227.98208 -11088471.98808  20027664.14908  20027666.46208
 -18488985.82708 -14406977.32408  20254909.89408  20254910.67408
 -13423000.64108 -10459473.95108  18898676.80908  18898677.51208
 -26512006.79708 -20658713.69908  19919965.16708  19919967.58708
 -25653692.11509 -19989880.05408  18895419.67309  18895420.80408
 93 04 15 19 44 00.0000000  0  7 29 11 02 31 27 18 19
   3793711.28707   2956094.61307  23055776.49107  23055786.73107
 -12542690.96908  -9773506.68508  20830064.21708  20830066.43908
 -14457117.57108 -11265268.88108  19984488.37508  19984490.62808
 -18317533.65908 -14273378.28308  20287536.15908  20287537.00808
 -13613303.69808 -10607762.01908  18862463.28908  18862464.07408
 -26181086.57008 -20400854.08408  19982937.44508  19982940.01408
 -25613618.74509 -19958654.08508  18903045.39009  18903046.55708
 93 04 15 19 46 00.0000000  0  8 29 28 11 02 31 27 18 19
   4211368.82307   3281540.29507  23135255.24107  23135265.91707
         0.42417         0.00217  23254641.87817  23254643.98217
 -12555112.99408  -9783186.16408  20827700.28808  20827702.62108
 -14680471.19208 -11439310.51108  19941985.39408  19941987.67408
 -18138518.89208 -14133886.31708  20321601.58308  20321602.43208
 -13801683.51608 -10754551.46208  18826615.81008  18826616.52808
 -25845690.15208 -20139506.56408  20046761.53608  20046764.17908
 -25570997.50209 -19925442.76908  18911155.99009  18911157.18508
 93 04 15 19 48 00.0000000  0  8 29 28 11 02 31 27 18 19
   4629737.08607   3607539.70807  23214869.58707  23214880.71007
    342758.03807    267083.73407  23319866.41207  23319868.61007
 -12557758.66908  -9785247.70708  20827196.87008  20827199.16608
 -14899404.79808 -11609907.98308  19900323.62608  19900325.80408
 -17951005.87508 -13987772.33808  20357284.30608  20357285.05208
 -13986790.34208 -10898790.52108  18791391.13608  18791391.86608
 -25505221.39508 -19874206.58408  20111550.96508  20111553.62608
 -25524519.00409 -19889225.80808  18920000.56909  18920001.69508
 93 04 15 19 50 00.0000000  0  8 29 11 02 31 28 27 18 19
   5048643.21207   3933958.23407  23294586.41107  23294597.80507
 -12550427.06408  -9779534.75408  20828592.07508  20828594.26408
 -15113942.55508 -11777080.11408  19859498.35108  19859500.58608
 -17755169.63808 -13835172.74308  20394550.74508  20394551.55308
    689858.93307    537551.86607  23385917.72407  23385920.15607
 -14168307.99108 -11040232.81808  18756849.51608  18756850.24608
 -25159689.76408 -19604961.52008  20177303.64708  20177306.42208
 -25474069.87709 -19849914.84808  18929600.78109  18929601.91608
 93 04 15 19 52 00.0000000  0  8 29 11 02 31 28 27 18 19
   5468153.77507   4260847.77507  23374417.92007  23374429.90307
 -12533402.76108  -9766269.05808  20831831.68408  20831833.85008
 -15324580.46808 -11941213.40208  19819415.22208  19819417.29308
 -17551020.51608 -13676095.56508  20433399.18808  20433399.88408
   1040457.21107    810745.22407  23452634.37207  23452636.81507
 -14346654.35908 -11179203.98408  18722911.25008  18722912.01008
 -24809356.27708 -19331974.75608  20243970.17508  20243972.98108
 -25420011.21509 -19807791.25708  18939887.77109  18939889.00608
 93 04 15 19 54 00.0000000  0  7 29 11 02 31 27 18 19
   5887607.87607   4587693.30007  23454238.35907  23454251.00707
 -12507140.08908  -9745804.62808  20836829.18808  20836831.40508
 -15531388.15308 -12102362.09108  19780060.83908  19780062.96108
 -17339459.29808 -13511242.73408  20473657.82608  20473658.77708
 -14522003.76508 -11315839.84908  18689543.32208  18689544.10408
 -24455102.31608 -19055933.09008  20311382.68508  20311385.67608
 -25363055.63509 -19763410.32308  18950726.12609  18950727.32908
 93 04 15 19 56 00.0000000  0  8 16 29 11 02 31 27 18 19
        -0.61718        -0.66318  21993356.28918  21993361.01218
   6306762.55807   4914305.49007  23534002.33707  23534015.33207
 -12471489.35608  -9718024.83008  20843613.41108  20843615.63108
 -15734063.37308 -12260290.69208  19741492.87508  19741495.01308
 -17120415.60508 -13340559.41308  20515340.57608  20515341.43608
 -14694330.35408 -11450120.28108  18656750.69208  18656751.38908
 -24096886.97308 -18776804.65308  20379549.16708  20379552.21008
 -25302474.08209 -19716203.95708  18962254.49709  18962255.70808
 93 04 15 19 58 00.0000000  0  7 16 11 02 31 27 18 19
     65512.47608     51048.14708  22005823.45008  22005828.01608
 -12425762.39608  -9682393.42908  20852314.89908  20852317.00608
 -15932106.74608 -12414610.06808  19703806.40908  19703808.42008
 -16893279.27508 -13163570.14508  20558563.19608  20558564.17908
 -14862906.95608 -11581478.64908  18624671.62108  18624672.29108
 -23733861.95908 -18493928.43508  20448630.84208  20448634.01008
 -25237691.85709 -19665724.34608  18974582.17109  18974583.42208
 93 04 15 20 00 00.0000000  0  7 16 02 11 31 27 18 19
    138112.64808    107619.39208  22019638.85108  22019643.71108
 -16125744.31208 -12565496.35208  19666958.37708  19666960.32708
 -12369986.09808  -9638931.38408  20862928.76308  20862930.94608
 -16658021.65708 -12980252.60208  20603331.27208  20603332.25408
 -15027438.25708 -11709684.83108  18593362.27408  18593362.97508
 -23366165.57108 -18207412.19708  20518601.55108  20518604.63008
 -25168673.39109 -19611943.78708  18987716.01009  18987717.17008
 93 04 15 20 02 00.0000000  0  7 16 02 11 31 27 18 19
    218445.41508    170216.04008  22034925.91308  22034930.99308
 -16314930.18308 -12712913.78708  19630957.31908  19630959.36808
 -12304294.73508  -9587743.31808  20875429.45908  20875431.60108
 -16414947.95108 -12790844.59408  20649586.79308  20649587.71008
 -15188003.29608 -11834800.41808  18562807.72508  18562808.45408
 -22994243.51208 -17917603.25708  20589376.25108  20589379.50608
 -25095354.84409 -19554812.51808  19001668.07609  19001669.23308
 93 04 15 20 04 00.0000000  0  7 16 02 11 31 27 18 19
    305355.07508    237937.51008  22051464.56108  22051469.63108
 -16499625.41608 -12856832.02408  19595810.93508  19595812.85508
 -12228868.65808  -9528969.75708  20889782.67108  20889784.79808
 -16164559.98208 -12595737.14708  20697234.00708  20697235.07108
 -15344863.50208 -11957029.12408  18532958.18908  18532958.93608
 -22618505.50208 -17624820.84408  20660877.21708  20660880.58908
 -25018142.03509 -19494646.75808  19016361.23709  19016362.53408
 93 04 15 20 06 00.0000000  0  7 16 02 27 11 31 18 19
    398671.82108    310651.49408  22069222.50608  22069227.60508
 -16680223.75808 -12997557.88308  19561444.14108  19561446.04008
 -15497782.70508 -12076186.92908  18503858.66008  18503859.35008
 -12143822.72208  -9462700.20108  20905966.44008  20905968.50108
 -15907013.24608 -12395051.45708  20746243.55608  20746244.68208
 -22238974.15008 -17329082.61608  20733099.99808  20733103.35908
 -24937111.94909 -19431506.50308  19031780.86409  19031782.06808
 93 04 15 20 08 00.0000000  0  7 16 02 27 19 11 31 18
    498420.64708    388377.51308  22088204.08508  22088209.43508
 -16857081.59508 -13135369.07008  19527789.10708  19527791.05208
 -15646742.97808 -12192259.85108  18475512.46408  18475513.13708
 -24852172.12409 -19365319.69208  19047944.41809  19047945.60908
 -12049359.18108  -9389092.26208  20923942.16008  20923944.34608
 -15642401.05308 -12188860.23808  20796597.63508  20796598.81508
 -21856022.57308 -17030679.30108  20805973.52408  20805977.17808
 93 04 15 20 10 00.0000000  0  7 16 02 27 19 11 31 18
    604980.00408    471410.43208  22108482.14408  22108487.32408
 -17029565.46308 -13269771.96408  19494966.50008  19494968.41808
 -15791612.38308 -12305145.08008  18447944.70808  18447945.42508
 -24762889.36909 -19295748.79008  19064934.39909  19064935.63708
 -11945211.36908  -9307938.15308  20943760.82208  20943763.07308
 -15370654.13508 -11977109.49508  20848309.40808  20848310.60908
 -21469569.05608 -16729547.20408  20879513.53908  20879517.30808
 93 04 15 20 12 00.0000000  0  7 18 16 27 02 19 11 31
 -21079396.47408 -16425517.17308  20953761.46508  20953765.38908
    717756.09108    559287.52308  22129942.95508  22129948.27408
 -15932049.62308 -12414576.67008  18421220.39208  18421221.06808
 -17197664.70108 -13400758.26908  19462978.06608  19462979.99108
 -24669100.46309 -19222666.61208  19082781.87909  19082783.13408
 -11831502.91808  -9219334.20908  20965398.76508  20965401.11908
 -15092074.59408 -11760034.63108  20901321.45908  20901322.72108
 93 04 15 20 14 00.0000000  0  7 11 16 18 27 02 19 31
 -11708432.23508  -9123435.03208  20988818.43808  20988820.77408
    836533.42008    651840.89308  22152545.76408  22152551.17508
 -20686275.59108 -16119189.81508  21028570.30108  21028574.39608
 -16068237.93908 -12520697.41908  18395304.61908  18395305.33508
 -17361780.43208 -13528640.55208  19431747.82708  19431749.70708
 -24571336.16609 -19146486.71908  19101385.92309  19101387.19608
 -14806862.42508 -11537791.49608  20955595.59608  20955596.75908
 93 04 15 20 16 00.0000000  0  7 11 31 16 27 02 18 19
 -11576101.18308  -9020319.98508  21014000.26408  21014002.46108
 -14515222.34808 -11310539.60808  21011092.94008  21011094.20108
    961338.13208    749090.91707  22176295.78808  22176300.97407
 -16200344.81308 -12623637.82408  18370165.50308  18370166.20508
 -17522156.47908 -13653608.79608  19401229.25408  19401231.04508
 -20290370.33708 -15810692.81008  21103909.09408  21103913.24408
 -24469712.91209 -19067299.83408  19120724.18309  19120725.55008
 93 04 15 20 18 00.0000000  0  7 11 31 16 27 02 18 19
 -11434670.68608  -8910114.45708  21040913.63708  21040915.83208
 -14217280.23008 -11078377.04908  21067789.74308  21067790.79608
   1091869.90308    850803.58207  22201135.53808  22201140.84707
 -16328163.28608 -12723236.62108  18345842.46408  18345843.14408
 -17678536.30708 -13775463.09808  19371471.03608  19371472.86408
 -19891662.07108 -15500011.65708  21179781.27308  21179785.53508
 -24363607.69108 -18984620.50008  19140915.39508  19140916.73808
 93 04 15 20 20 00.0000000  0  7 11 02 31 16 27 18 19
 -11284366.66308  -8792994.50408  21069515.63808  21069517.72608
 -17830976.64608 -13894247.67508  19342462.62608  19342464.33508
 -13913505.28008 -10841669.42808  21125596.35208  21125597.35608
   1228085.25608    956945.03408  22227056.73208  22227062.28908
 -16451540.38108 -12819374.59508  18322364.51808  18322365.20508
 -19490571.38708 -15187474.12808  21256106.80508  21256111.19708
 -24253171.10608 -18898566.07508  19161930.75408  19161932.15408
 93 04 15 20 22 00.0000000  0  8 26 11 02 31 16 27 18 19
        -0.33417         0.44417  23215379.37317  23215382.63117
 -11125404.36608  -8669127.84108  21099765.21208  21099767.41708
 -17979931.56608 -14010316.34008  19314117.30108  19314119.08808
 -13603998.96008 -10600495.83108  21184493.53108  21184494.63608
   1369250.58608   1066943.54208  22253919.89008  22253925.71908
 -16570718.00608 -12912240.25508  18299685.80008  18299686.46808
 -19087443.34608 -14873349.05608  21332819.99608  21332824.48908
 -24139058.96808 -18809647.58708  19183645.69708  19183647.05808
 93 04 15 20 24 00.0000000  0  8 26 11 02 31 16 27 18 19
   -411788.93407   -320873.58208  23137018.43507  23137021.73408
 -10957816.73108  -8538540.15108  21131656.05808  21131658.38308
 -18124968.72408 -14123332.20408  19286517.53708  19286519.35508
 -13288879.49508 -10354948.33508  21244458.73608  21244460.13008
   1515574.84408   1180962.00207  22281764.75908  22281770.48107
 -16685302.90308 -13001527.16708  18277881.02708  18277881.61708
 -18682089.42908 -14557489.56908  21409956.73508  21409961.44008
 -24020967.16408 -18717628.06908  19206117.90408  19206119.26208
 93 04 15 20 26 00.0000000  0  8 26 11 02 31 16 27 18 19
   -821195.31707   -639891.26207  23059110.80207  23059113.97707
 -10781450.11408  -8401111.69908  21165217.58008  21165219.92608
 -18266544.06908 -14233650.55408  19259576.60208  19259578.33808
 -12968287.26708 -10105136.35808  21305465.45608  21305466.79708
   1667199.78108   1299110.87408  22310618.27608  22310624.36508
 -16795060.67708 -13087052.68008  18256994.80208  18256995.44308
 -18274614.66208 -14239977.51808  21487497.17108  21487502.08608
 -23898520.63508 -18622215.26008  19229418.74008  19229420.14808
 93 04 15 20 28 00.0000000  0  8 26 11 02 31 16 27 18 19
  -1227932.70107   -956829.34607  22981711.05207  22981714.26107
 -10596330.79408  -8256862.97608  21200444.59008  21200447.08508
 -18404245.61708 -14340950.36708  19233372.76208  19233374.47208
 -12642385.78208  -9851187.31908  21367482.58908  21367483.89408
   1823694.30108   1421054.17808  22340398.35108  22340404.93308
 -16899693.41808 -13168584.66808  18237083.79108  18237084.46408
 -17865221.74008 -13920970.83708  21565402.55108  21565407.74708
 -23771350.93208 -18523122.05908  19253618.32508  19253619.82408
 93 04 15 20 30 00.0000000  0  8 26 11 02 31 16 27 18 19
  -1631826.30307  -1271551.40807  22904852.55207  22904855.54107
 -10402718.22208  -8105996.11908  21237287.92308  21237290.39508
 -18538117.00308 -14445265.64608  19207897.69908  19207899.36808
 -12311078.21508  -9593025.76108  21430528.41808  21430529.87908
   1984823.67908   1546609.05708  22371060.81908  22371067.25808
 -16999451.70308 -13246318.37708  18218100.47508  18218101.03908
 -17453881.35308 -13600446.66708  21643678.78408  21643684.14808
 -23639952.15608 -18420733.48208  19278622.70908  19278624.29108
 93 04 15 20 32 00.0000000  0  8 26 11 02 31 16 27 18 19
  -2032579.73107  -1583826.61207  22828591.66807  22828594.65207
 -10200823.74208  -7948675.83908  21275707.31208  21275709.73908
 -18668391.10008 -14546777.85508  19183107.53308  19183109.09908
 -11975005.21108  -9331150.88608  21494481.09708  21494482.60408
   2150490.58308   1675699.66408  22402586.58208  22402593.07208
 -17094543.22308 -13320415.64508  18200005.10908  18200005.71008
 -17041071.05708 -13278777.14708  21722234.55108  21722240.23308
 -23504249.71308 -18314991.38908  19304446.10208  19304447.63808
 93 04 15 20 34 00.0000000  0  8 26 11 02 31 16 27 18 19
  -2430168.60608  -1893635.96107  22752932.88108  22752935.78007
  -9990541.79008  -7784819.88108  21315722.81408  21315725.12408
 -18794895.44008 -14645352.59408  19159034.42408  19159036.04708
 -11633885.87108  -9065343.83308  21559394.27308  21559395.78408
   2320762.18408   1808378.35107  22434988.59408  22434995.13507
 -17184588.37008 -13390580.67508  18182870.10208  18182870.65608
 -16626512.88008 -12955745.69908  21801123.15408  21801128.93308
 -23364073.13808 -18205762.95908  19331120.97608  19331122.46408
 93 04 15 20 36 00.0000000  0  8 26 11 02 31 16 27 18 19
  -2824719.61808  -2201078.14507  22677852.18508  22677855.04507
  -9771980.49008  -7614512.48208  21357313.67908  21357316.01608
 -18917813.70708 -14741132.98308  19135643.82208  19135645.41708
 -11287787.80608  -8795657.23508  21625254.62808  21625256.28208
   2495609.93208   1944622.83407  22468261.38508  22468267.85707
 -17269024.50108 -13456375.05008  18166802.41508  18166803.01008
 -16210540.21708 -12631612.11208  21880280.69408  21880286.87108
 -23219299.50108 -18092952.40508  19358670.53108  19358672.06308
 93 04 15 20 38 00.0000000  0  8 26 11 02 31 16 27 18 19
  -3215869.26008  -2505869.86507  22603418.67308  22603421.49307
  -9545553.88108  -7438076.31208  21400401.40808  21400403.87708
 -19037242.22508 -14834194.08608  19112917.26208  19112918.92308
 -10937297.53208  -8522548.12908  21691950.80208  21691952.53008
   2674483.91508   2084004.66207  22502300.35708  22502306.88007
 -17348053.43708 -13517956.03408  18151763.67708  18151764.31008
 -15793786.97108 -12306870.30008  21959586.91408  21959593.37108
 -23070048.16708 -17976652.76108  19387072.21608  19387073.73808
 93 04 15 20 40 00.0000000  0  8 26 11 02 31 16 27 18 19
  -3603492.75708  -2807913.94508  22529656.28008  22529659.10608
  -9311757.43008  -7255897.41908  21444891.67308  21444894.06708
 -19153610.32908 -14924870.46108  19090773.12808  19090774.69008
 -10582835.99408  -8246344.57908  21759402.91108  21759404.56908
   2856985.32008   2226213.01507  22537029.62908  22537036.44807
 -17422289.96108 -13575802.67008  18137636.99508  18137637.59108
 -15376286.02608 -11981545.93108  22039035.49208  22039042.12608
 -22916553.42208 -17857046.56108  19416281.27108  19416282.82808
 93 04 15 20 42 00.0000000  0  8 26 11 02 31 16 27 18 19
  -3987680.25408  -3107280.61208  22456547.63008  22456550.49608
  -9070617.56008  -7067996.37608  21490778.92108  21490781.53408
 -19266742.20409 -15013025.10508  19069244.80709  19069246.39008
 -10224361.68008  -7967014.18508  21827618.50908  21827620.20808
   3042916.13207   2371093.65607  22572411.40207  22572418.49107
 -17491485.84008 -13629721.54608  18124469.46408  18124470.06008
 -14958134.03508 -11655714.30608  22118608.01508  22118614.87008
 -22758935.91808 -17734227.82108  19446274.91908  19446276.53708
 93 04 15 20 44 00.0000000  0  7 26 11 31 16 27 18 19
  -4368332.68108  -3403892.73708  22384111.89108  22384114.67008
  -8822225.39608  -6874444.22808  21538046.65708  21538049.28508
  -9862442.96508  -7684999.89508  21896489.37208  21896491.49608
   3231744.18207   2518231.80807  22608344.58007  22608351.85207
 -17555376.40208 -13679506.39908  18112311.51908  18112312.10808
 -14539749.73108 -11329701.74508  22198224.76208  22198231.92808
 -22597196.70108 -17608197.37008  19477052.99108  19477054.66008
 93 04 15 20 46 00.0000000  0  8 26 11 02 31 16 27 18 19
  -4745350.33308  -3697672.59708  22312367.55008  22312370.34108
  -8566751.24408  -6675373.65108  21586661.79408  21586664.44908
        -0.22819        -0.07718  19028016.63919  19028018.12918
  -9497118.78408  -7400331.96908  21966008.58808  21966010.60208
   3424021.09107   2668057.39407  22644934.14107  22644941.43107
 -17613896.65908 -13725106.60208  18101175.44508  18101176.05108
 -14121204.49508 -11003563.83408  22277872.34008  22277879.73308
 -22431463.54208 -17479054.77208  19508591.13308  19508592.66008
 93 04 15 20 48 00.0000000  0  7 26 11 31 16 27 18 19
  -5118322.37608  -3988299.98008  22241393.47708  22241395.88408
  -8304217.43108  -6470802.03808  21636620.49708  21636623.31208
  -9127742.58408  -7112506.61808  22036298.72908  22036300.69208
   3619296.46907   2820219.46507  22682094.27307  22682101.75407
 -17666914.81008 -13766419.45808  18091086.39308  18091086.99208
 -13702379.85608 -10677208.26107  22357572.99008  22357580.62607
 -22260784.84308 -17346058.51608  19541070.29008  19541071.92408
 93 04 15 20 50 00.0000000  0  8 26 11 02 31 16 27 18 19
  -5486778.99808  -4275408.92508  22171278.49408  22171280.51408
  -8034768.47408  -6260842.03208  21687895.15008  21687897.83508
        -0.43619         0.06918  18989199.83819  18989201.31518
  -8755202.33908  -6822216.00808  22107191.09208  22107193.29308
   3817396.96807   2974582.93407  22719791.91207  22719799.63907
 -17714031.55508 -13803133.81508  18082120.40208  18082121.06808
 -13283303.14608 -10350656.29907  22437321.57608  22437329.51707
 -22085707.99108 -17209635.13808  19574386.43308  19574388.04508
 93 04 15 20 52 00.0000000  0  8 26 11 02 31 16 27 18 19
  -5850692.91908  -4558978.06208  22102027.80608  22102029.94708
  -7758657.69008  -6045690.97808  21740437.45308  21740440.11308
    -97309.62709    -75825.23408  18970682.50809  18970684.00008
  -8379754.25408  -6529659.31308  22178636.81208  22178638.90808
   4018239.99507   3131083.44907  22758011.36807  22758019.38007
 -17755474.73508 -13835427.21008  18074234.07608  18074234.75608
 -12864597.96108 -10024393.96307  22516999.46708  22517007.85907
 -21906423.84508 -17069933.36108  19608503.06908  19608504.85608
 93 04 15 20 54 00.0000000  0  8 26 11 02 31 16 27 18 19
  -6210328.10608  -4839213.16008  22033591.31608  22033593.72108
  -7475807.18208  -5825288.20608  21794262.37908  21794265.05208
   -191569.21309   -149274.22208  18952745.42009  18952746.94108
  -8000956.47407  -6234492.53707  22250719.68407  22250721.92907
   4221718.73607   3289637.72707  22796732.64507  22796740.53507
 -17791021.71908 -13863126.17208  18067469.72808  18067470.40108
 -12445841.57308  -9698091.81508  22596687.43208  22596696.31208
 -21722491.68108 -16926609.75208  19643504.40308  19643506.14408
 93 04 15 20 56 00.0000000  0  8 26 11 02 31 16 27 18 19
  -6565749.25108  -5116164.54108  21965956.88808  21965959.27008
  -7186943.90608  -5600200.18808  21849231.36208  21849234.09708
   -282868.95909   -220416.82108  18935371.67309  18935373.19608
  -7619708.72808  -5937416.67307  22323269.14608  22323271.47807
   4427029.63407   3449619.64307  22835802.49707  22835810.64407
 -17821095.79008 -13886560.52608  18061746.82908  18061747.38408
 -12028016.40507  -9372515.37507  22676198.10407  22676207.34707
 -21534382.16508 -16780031.04808  19679300.65408  19679302.37408
 93 04 15 20 58 00.0000000  0  8 26 11 02 31 16 27 18 19
  -6915771.19808  -5388908.75308  21899349.63508  21899352.14408
  -6891390.27208  -5369898.88108  21905473.39908  21905476.32808
   -370819.11009   -288949.35308  18918635.20909  18918636.73308
  -7235300.29707  -5637877.93607  22396419.94807  22396422.19607
   4635121.85907   3611768.86207  22875401.60907  22875409.84107
 -17844658.21508 -13904920.87408  18057263.05208  18057263.66608
 -11610294.47807  -9047019.45907  22755689.19807  22755698.98307
 -21341452.12908 -16629696.09308  19716014.09408  19716015.93108
 93 04 15 21 00 00.0000000  0  8 26 11 02 31 16 27 18 19
  -7260253.92808  -5657336.75608  21833796.77908  21833799.10108
  -6589528.60608  -5134682.22208  21962916.01608  21962919.04908
   -455602.27209   -355014.10908  18902501.50309  18902502.97008
  -6848272.46208  -5336298.16607  22470069.25408  22470071.45107
   4845387.94207   3775612.04007  22915414.23807  22915422.57307
 -17861756.25108 -13918244.04008  18054009.44208  18054010.06908
 -11192851.13807  -8721740.75108  22835127.29907  22835137.65108
 -21143995.31308 -16475833.78508  19753588.93708  19753590.88908
 93 04 15 21 02 00.0000000  0  8 26 11 02 31 16 27 18 19
  -7599509.69208  -5921691.81608  21769238.49308  21769240.67208
  -6281684.39108  -4894803.88808  22021496.99008  22021500.03708
   -537157.46609   -418563.57308  18886982.08009  18886983.57108
  -6458769.95807  -5032790.02907  22544189.14407  22544191.33807
   5057628.96407   3940994.13007  22955802.73507  22955811.24507
 -17872857.83208 -13926894.63808  18051896.88208  18051897.51708
 -10776138.66807  -8397031.62907  22914426.57107  22914437.17507
 -20941809.11208 -16318286.23408  19792063.86008  19792065.70308
 93 04 15 21 04 00.0000000  0  8 26 11 02 31 16 27 18 19
  -7934011.16608  -6182342.24808  21705584.98408  21705587.14408
  -5968299.01008  -4650607.77408  22081132.26908  22081135.58708
   -616250.93809   -480194.82508  18871931.01009  18871932.41408
  -6067305.54407  -4727753.17307  22618682.72307  22618685.08707
   5271356.66007   4107534.67607  22996474.17107  22996482.56507
 -17877849.38108 -13930784.17508  18050947.02108  18050947.70608
 -10360861.33207  -8073440.89207  22993452.48507  22993463.71207
 -20734873.04008 -16157037.51108  19831442.57208  19831444.45208
 93 04 15 21 06 00.0000000  0  8 26 11 02 31 16 27 18 19
  -8262986.09008  -6438686.30408  21642982.94408  21642985.31508
  -5649658.66308  -4402316.89108  22141767.84108  22141771.29708
   -692539.77009   -539640.63508  18857413.69409  18857415.15508
  -5674037.99307  -4421311.26107  22693519.38607  22693521.86307
   5486226.67206   4274965.34606  23037362.96706  23037371.51106
 -17876754.06408 -13929930.69908  18051155.46408  18051156.09508
  -9946753.67007  -7750761.68707  23072256.07807  23072267.76007
 -20524039.91908 -15992752.12908  19871562.97508  19871564.84508
 93 04 15 21 08 00.0000000  0  7 26 11 02 31 27 18 19
  -8586494.70808  -6690770.85108  21581421.32208  21581423.52808
  -5325903.52808  -4150040.51008  22203376.46008  22203380.11608
   -765956.02609   -596848.07308  18843442.98009  18843444.48608
  -5278968.82807  -4113465.47307  22768698.71507  22768701.15007
 -17869731.77808 -13924458.81708  18052491.80308  18052492.43808
  -9534020.76707  -7429153.57707  23150798.40807  23150810.38007
 -20309051.09808 -15825228.54708  19912473.97908  19912476.01208
 93 04 15 21 10 00.0000000  0  7 26 11 02 31 15 27 19
  -8904245.92408  -6938369.11008  21520955.19708  21520957.38108
  -4997054.38308  -3893794.77408  22265954.59708  22265958.29608
   -836858.31509   -652096.57108  18829950.64609  18829952.08108
  -4882283.80407  -3804360.60307  22844185.58907  22844188.04207
        -0.31318         0.04918  21859060.92818  21859063.53418
 -17856075.23908 -13913817.40208  18055090.58708  18055091.25308
 -20089613.16608 -15654238.12708  19954231.78108  19954233.85908
 93 04 15 21 12 00.0000000  0  8 26 11 02 31 15 27 13 19
  -9216083.12308  -7181359.06708  21461614.42608  21461616.69008
  -4662957.50608  -3633459.92508  22329531.67408  22329535.37008
   -904836.33609   -705066.43108  18817014.99009  18817016.31608
  -4484044.78307  -3494044.72807  22919968.19707  22919970.81907
   -172598.65508   -134491.98708  21826216.23708  21826218.84908
 -17835423.62808 -13897725.28308  18059020.45808  18059021.15708
        -0.72417        -0.76817  22266766.45617  22266776.85417
 -19865487.80408 -15479595.17008  19996881.57508  19996883.67208
 93 04 15 21 14 00.0000000  0  8 26 11 02 31 15 27 13 19
  -9521594.56008  -7419419.86908  21403477.64208  21403479.75108
  -4323684.46308  -3369091.67308  22394093.62108  22394097.09708
   -969814.28109   -755698.56408  18804650.06209  18804651.46008
  -4084112.73807  -3182409.60807  22996072.91607  22996075.84607
   -338268.64908   -263585.31608  21794690.32408  21794692.92908
 -17808016.58308 -13876369.18408  18064235.89908  18064236.63308
   -509595.59507   -397085.71907  22169792.17107  22169802.28407
 -19636244.22808 -15300964.01008  20040505.33808  20040507.52508
 93 04 15 21 16 00.0000000  0  8 26 11 02 31 15 27 13 19
  -9820271.74908  -7652155.28308  21346641.05608  21346643.34008
  -3979485.11508  -3100884.80508  22459593.01808  22459596.43308
  -1031803.35409   -804001.70308  18792853.89209  18792855.26108
  -3682539.35207  -2869495.60607  23072490.09007  23072492.94607
   -496929.04408   -387216.62208  21764497.90908  21764500.71308
 -17773686.09508 -13849618.19408  18070768.79508  18070769.49808
  -1018210.85707   -793407.49107  22073004.60307  22073014.20307
 -19402504.60008 -15118829.43808  20084984.68408  20084986.90108
 93 04 15 21 18 00.0000000  0  7 26 11 02 15 27 13 19
 -10112509.99608  -7879873.36008  21291029.99808  21291032.41608
  -3630645.53708  -2829062.15108  22525975.09408  22525978.93908
  -1090771.73209   -849951.05108  18781632.57809  18781633.91108
   -648537.05408   -505352.61408  21735647.64508  21735650.50508
 -17732640.25308 -13817634.45908  18078579.58708  18078580.33908
  -1525751.30407  -1188891.87207  21976421.60907  21976430.77907
 -19164209.37008 -14933145.06708  20130330.86908  20130333.15708
 93 04 15 21 20 00.0000000  0  7 26 11 02 15 27 13 19
 -10398273.93308  -8102546.52708  21236650.95008  21236653.11008
  -3277476.23708  -2553865.70008  22593181.32908  22593185.38708
  -1146818.73109   -893624.00908  18770967.13009  18770968.52308
   -793077.85308   -617981.68208  21708142.52708  21708145.21308
 -17684635.95608 -13780228.57008  18087714.54708  18087715.29208
  -2032141.99907  -1583480.33907  21880057.48307  21880066.24707
 -18921150.40108 -14743748.71108  20176583.61908  20176586.07408
 93 04 15 21 22 00.0000000  0  7 26 11 02 15 27 13 19
 -10677428.07908  -8320069.21308  21183529.73308  21183531.84808
  -2920211.48508  -2275477.96007  22661166.79108  22661170.52307
  -1200178.90609   -935203.34608  18760813.02509  18760814.37908
   -930465.50008   -725036.90408  21681998.53308  21682000.99108
 -17629653.32508 -13737385.02308  18098177.45008  18098178.22408
  -2537231.06007  -1977054.62007  21783940.94507  21783949.28807
 -18673469.08508 -14550750.53408  20223716.01008  20223718.56208
 93 04 15 21 24 00.0000000  0  7 26 11 02 15 27 13 19
 -10949635.15708  -8532178.60208  21131730.42208  21131732.56508
  -2558944.43808  -1993971.56607  22729913.99808  22729917.92807
  -1250776.67709   -974630.15408  18751184.50209  18751185.87608
  -1060477.03208   -826344.52108  21657257.95908  21657260.72608
 -17567876.46308 -13689247.26508  18109933.25908  18109933.97208
  -3040727.01207  -2369387.64907  21688127.55407  21688135.83707
 -18421676.71008 -14354548.94308  20271630.68208  20271633.27808
 93 04 15 21 26 00.0000000  0  7 26 11 02 15 27 13 19
 -11215193.05308  -8739106.81908  21081196.26108  21081198.49008
  -2194150.61408  -1709717.05107  22799332.09108  22799336.13407
  -1299109.41409  -1012292.01508  18741987.12809  18741988.53008
  -1183276.79508   -922032.58508  21633889.74608  21633892.79708
 -17499541.21308 -13635999.07108  18122937.01808  18122937.80908
  -3542716.86208  -2760547.20007  21592601.06908  21592608.90507
 -18165737.79108 -14155116.27008  20320334.41408  20320337.02308
 93 04 15 21 28 00.0000000  0  7 26 11 02 15 27 13 19
 -11473865.44208  -8940669.71408  21031972.51808  21031974.90408
  -1825855.76108  -1422734.45007  22869416.68808  22869420.69707
  -1344929.09509  -1047995.65308  18733267.98009  18733269.28608
  -1298584.40208  -1011882.61808  21611947.61408  21611950.40108
 -17424165.47108 -13577264.79908  18137280.56908  18137281.44408
  -4042841.60308  -3150253.51207  21497429.49908  21497437.09807
 -17905195.83208 -13952096.83108  20369914.16308  20369916.76908
 93 04 15 21 30 00.0000000  0  7 15 13 11 02 27 26 19
  -1406149.95408  -1095699.88208  21591478.42208  21591481.29508
  -4540766.85508  -3538246.03107  21402676.54608  21402683.88507
  -1454110.85708  -1133063.44807  22940157.76708  22940162.19807
  -1388271.62009  -1081769.05008  18725020.09809  18725021.44308
 -17341644.52008 -13512962.83908  18152983.91008  18152984.74508
 -11725089.00508  -9136428.34608  20984166.38508  20984168.69208
 -17640255.41108 -13745650.03708  20420330.89108  20420333.56808
 93 04 15 21 32 00.0000000  0  7 15 13 11 02 27 26 19
  -1505978.31408  -1173488.16408  21572481.74808  21572484.29808
  -5036405.85908  -3924457.15407  21308358.81508  21308365.68607
  -1079216.31208   -840938.33507  23011498.09508  23011502.73707
  -1428798.90809  -1113348.75708  18717308.03509  18717309.40008
 -17252163.91208 -13443237.77208  18170011.50708  18170012.42808
 -11969249.20508  -9326683.07408  20937704.16208  20937706.44108
 -17371322.32108 -13536092.09508  20471507.25908  20471510.03008
 93 04 15 21 34 00.0000000  0  7 15 13 11 02 27 26 19
  -1598132.28308  -1245296.42208  21554945.44708  21554948.15208
  -5529726.25108  -4308861.57707  21214482.24508  21214488.87607
   -701523.46907   -546632.56807  23083370.71507  23083375.41107
  -1466920.15409  -1143053.62208  18710053.84209  18710055.18708
 -17155985.20108 -13368293.40708  18188313.81708  18188314.72308
 -12206303.89708  -9511401.04208  20892594.06708  20892596.31408
 -17098040.33808 -13323145.41408  20523511.38708  20523514.29908
 93 04 15 21 36 00.0000000  0  7 15 13 11 02 27 26 19
  -1682128.87108  -1310748.26208  21538961.52908  21538964.00508
  -6020142.84808  -4691003.36007  21121158.52908  21121164.64107
   -320832.08707   -249990.23207  23155814.13607  23155818.66907
  -1502415.46309  -1170712.30408  18703299.28209  18703300.60608
 -17052220.26508 -13287437.69908  18208059.66608  18208060.62008
 -12435756.53508  -9690195.34908  20848931.01708  20848933.08008
 -16820549.81508 -13106919.36108  20576316.28708  20576319.31008
 93 04 15 21 38 00.0000000  0  7 15 11 02 27 26 13 19
  -1758032.12808  -1369893.63208  21524517.47008  21524519.95908
     62517.88907     48723.80307  23228763.50407  23228768.29007
  -1535576.32109  -1196551.94308  18696988.98809  18696990.24208
 -16941433.39808 -13201110.37208  18229141.83908  18229142.71408
 -12657686.98508  -9863128.20608  20806699.06408  20806701.16608
  -6507613.07708  -5070849.30207  21028395.15008  21028401.10107
 -16538836.16208 -12887402.55408  20629924.76308  20629927.77708
 93 04 15 21 40 00.0000000  0  7 15 11 02 27 26 13 19
  -1825527.58808  -1422487.47208  21511673.52108  21511676.07808
    448570.18307    349543.49107  23302227.13607  23302231.90007
  -1565812.17209  -1220112.35308  18691235.32609  18691236.61308
 -16823388.90508 -13109127.75408  18251604.99708  18251605.91508
 -12871452.08908 -10029698.42508  20766020.80408  20766023.06008
  -6991711.33408  -5448067.80507  20936273.50608  20936279.47207
 -16252447.29408 -12664242.72308  20684423.19008  20684426.24008
 93 04 15 21 42 00.0000000  0  7 15 11 02 27 26 13 19
  -1885663.20508  -1469346.38108  21500230.08708  21500232.62708
    836014.57007    651448.02807  23375955.57207  23375960.31407
  -1594560.14209  -1242513.37008  18685764.78009  18685766.06308
 -16699080.59508 -13012264.24708  18275260.20108  18275261.11208
 -13078494.35008 -10191030.06108  20726621.95808  20726624.18808
  -7473369.36108  -5823384.90407  20844616.34408  20844622.04407
 -15962764.51108 -12438516.23308  20739548.23008  20739551.30208
 93 04 15 21 44 00.0000000  0  7 15 11 02 27 26 13 19
  -1936976.31708  -1509330.58708  21490465.72508  21490468.10708
   1226059.97507    955379.37207  23450178.70507  23450183.49407
  -1620332.53909  -1262595.75508  18680860.45609  18680861.77508
 -16567269.76308 -12909554.60708  18300342.95208  18300343.91908
 -13277293.89108 -10345938.80608  20688791.66808  20688793.91408
  -7951004.10508  -6195567.04008  20753725.10508  20753730.41408
 -15668659.24508 -12209343.64208  20795514.96408  20795518.06008
 93 04 15 21 46 00.0000000  0  7 15 11 02 27 26 13 19
  -1979182.05908  -1542218.17408  21482434.07908  21482436.62408
   1618743.98407   1261367.20207  23524903.56807  23524908.50507
  -1642954.96209  -1280223.62008  18676555.47509  18676556.89708
 -16427578.00108 -12800703.98108  18326925.48608  18326926.40208
 -13467067.92708 -10493814.69008  20652678.90808  20652681.14108
  -8424203.01908  -6564292.74008  20663677.68608  20663683.01108
 -15370003.21508 -11976625.05508  20852347.58408  20852350.94308
 93 04 15 21 48 00.0000000  0  6 15 02 27 26 13 19
  -2013337.81708  -1568833.04208  21475934.32008  21475936.95508
  -1663475.30409  -1296213.50208  18672650.64009  18672651.93308
 -16280959.64908 -12686456.02208  18354826.06508  18354827.08208
 -13649568.70708 -10636023.11508  20617950.05708  20617952.40608
  -8893890.05108  -6930281.94808  20574298.62408  20574303.82608
 -15067611.73408 -11740995.75508  20909891.06408  20909894.42908
 93 04 15 21 50 00.0000000  0  6 15 19 02 27 26 13
  -2038353.37908  -1588325.69508  21471174.14108  21471176.55508
 -14760641.17908 -11501798.33608  20968306.03108  20968309.51308
  -1680879.53809  -1309775.25608  18669338.69709  18669340.06708
 -16126486.19608 -12566087.21808  18384221.44408  18384222.58308
 -13823330.59708 -10771422.00908  20584884.32708  20584886.74808
  -9358840.15908  -7292580.11108  20485821.13108  20485826.08808
 93 04 15 21 52 00.0000000  0  6 15 19 02 27 26 13
  -2054250.62408  -1600713.15708  21468149.12308  21468151.54408
 -14449406.51108 -11259278.25608  21027532.10908  21027535.83008
  -1695608.96709  -1321252.74208  18666535.78209  18666537.12608
 -15964357.02008 -12439752.91408  18415073.73208  18415074.81408
 -13988115.75408 -10899826.04808  20553526.89708  20553529.08508
  -9818932.45408  -7651093.01508  20398268.03908  20398272.76708
 93 04 15 21 54 00.0000000  0  6 15 19 02 27 26 13
  -2061260.24408  -1606175.22108  21466815.26908  21466817.58808
 -14134060.82208 -11013554.79208  21087540.80408  21087544.48208
  -1707465.77709  -1330491.82008  18664279.48109  18664280.82608
 -15794953.39808 -12307750.21808  18447310.33908  18447311.40208
 -14144722.74908 -11021857.49008  20523725.50808  20523727.80108
 -10274254.33808  -8005888.72808  20311622.71408  20311627.35308
 93 04 15 21 56 00.0000000  0  6 15 19 02 27 26 13
  -2059749.45008  -1604998.00408  21467102.44308  21467105.17508
 -13814931.26008 -10764882.87508  21148269.49608  21148273.45708
  -1717103.02309  -1338001.36908  18662445.63409  18662446.91008
 -15618528.14108 -12170276.11808  18480883.04108  18480884.18408
 -14293186.76608 -11137543.76108  20495473.77408  20495476.05008
 -10725018.39308  -8357132.92508  20225844.80908  20225849.32808
 93 04 15 21 58 00.0000000  0  6 15 19 02 27 26 13
  -2049866.16708  -1597296.79608  21468983.30608  21468986.20108
 -13492524.61308 -10513657.42708  21209621.86608  21209625.75008
  -1724856.60509  -1344043.13208  18660970.14309  18660971.50608
 -15435379.52408 -12027563.04608  18515735.11308  18515736.30208
 -14433377.81608 -11246783.57108  20468796.31208  20468798.63608
 -11171218.45408  -8704820.76908  20140935.40408  20140939.76908
 93 04 15 22 00 00.0000000  0  6 15 19 02 27 26 13
  -2031153.38408  -1582715.42208  21472544.32408  21472546.78708
 -13166510.76008 -10259621.17308  21271660.50908  21271664.69208
  -1729674.08809  -1347797.03408  18660053.40309  18660054.75708
 -15244932.94208 -11879163.25208  18551976.05608  18551977.16808
 -14565325.20408 -11349599.75308  20443687.57208  20443689.90508
 -11612239.00608  -9048472.64308  20057011.54708  20057015.75908
 93 04 15 22 02 00.0000000  0  6 15 19 02 26 27 13
  -2003427.32008  -1561110.72808  21477820.18708  21477822.92708
 -12836453.81008 -10002434.50008  21334468.79308  21334472.86108
  -1731861.25709  -1349501.32608  18659637.18809  18659638.58008
 -14688645.09108 -11445693.24008  20420220.60508  20420222.82808
 -15047132.58008 -11725033.24508  18589616.32408  18589617.52608
 -12047731.22508  -9387816.77308  19974139.83308  19974143.87608
 93 04 15 22 04 00.0000000  0  6 15 19 02 26 27 13
  -1966782.15108  -1532556.05308  21484793.53608  21484796.33308
 -12502854.03408  -9742487.14308  21397951.13808  21397955.40008
  -1731808.68109  -1349460.36408  18659647.21709  18659648.55308
 -14803194.33008 -11534952.44208  20398422.52608  20398424.85008
 -14842214.46408 -11565356.95008  18628611.00808  18628612.23408
 -12477622.77108  -9722796.77508  19892334.04408  19892337.88808
 93 04 15 22 06 00.0000000  0  6 15 19 26 02 27 13
  -1921052.63808  -1496922.66508  21493495.65908  21493498.32708
 -12165706.45408  -9479775.33008  21462108.50108  21462113.16008
 -14909251.83308 -11617594.70508  20378240.59608  20378243.00808
  -1728875.23609  -1347174.56708  18660205.44709  18660206.75708
 -14629881.58108 -11399902.92008  18669016.66708  18669018.01208
 -12901574.85508 -10053148.68808  19811658.28308  19811662.18508
 93 04 15 22 08 00.0000000  0  6 15 19 26 02 27 13
  -1866363.98208  -1454308.14108  21503902.43508  21503905.19608
 -11824868.94808  -9214188.29208  21526968.33508  21526972.89708
 -15006583.39808 -11693437.53508  20359719.05508  20359721.41508
  -1723253.76909  -1342794.20708  18661275.15209  18661276.50208
 -14410623.25808 -11229052.45108  18710740.21808  18710741.65208
 -13319537.44808 -10378833.47508  19732122.27208  19732126.05908
 93 04 15 22 10 00.0000000  0  6 15 19 26 02 27 13
  -1802820.79708  -1404793.99108  21515994.18808  21515997.03908
 -11480455.33408  -8945814.70108  21592508.51108  21592513.34208
 -15095032.15608 -11762358.69108  20342887.77708  20342890.19208
  -1715092.21909  -1336434.56208  18662828.27409  18662829.54908
 -14184470.50408 -11052829.70208  18753775.85208  18753777.20708
 -13731435.63208 -10699792.77208  19653740.42808  19653744.10308
 93 04 15 22 12 00.0000000  0  6 15 19 26 02 27 13
  -1730269.93008  -1348260.86508  21529800.29108  21529802.87308
 -11132626.60708  -8674780.02708  21658698.70108  21658703.53708
 -15174589.45308 -11824351.42508  20327748.58208  20327751.08808
  -1704234.97909  -1327974.38808  18664894.28909  18664895.67108
 -13950740.43608 -10870702.55208  18798253.32008  18798254.72908
 -14136932.43608 -11015763.98908  19576576.72708  19576580.31808
 93 04 15 22 14 00.0000000  0  6 15 19 26 02 27 13
  -1648700.51708  -1284700.30408  21545322.47008  21545325.21508
 -10781531.09808  -8401199.83408  21725510.61208  21725515.59008
 -15245547.29908 -11879643.31308  20314245.80708  20314248.43108
  -1690854.94609  -1317548.39708  18667440.38009  18667441.79908
 -13710235.89008 -10683296.60108  18844020.03608  18844021.50008
 -14535833.91908 -11326596.01508  19500668.07608  19500671.53108
 93 04 15 22 16 00.0000000  0  6 15 19 26 02 27 13
  -1558081.39408  -1214088.02108  21562566.79208  21562569.30008
 -10427017.33008  -8124956.14208  21792972.86208  21792978.17408
 -15307548.62508 -11927956.10908  20302447.35608  20302449.93308
  -1674590.23609  -1304874.60308  18670535.49409  18670536.80908
 -13462768.87308 -10490465.35108  18891111.58908  18891113.01308
 -14927919.52008 -11632116.96708  19426056.43708  19426059.78608
 93 04 15 22 18 00.0000000  0  6 15 19 26 02 27 13
  -1458494.28608  -1136487.71708  21581517.82908  21581520.19208
 -10069435.06808  -7846321.46608  21861018.85108  21861024.70708
 -15360806.44208 -11969455.79008  20292312.78908  20292315.24608
  -1655749.97209  -1290193.88808  18674120.72309  18674122.07008
 -13208058.75708 -10291990.13708  18939581.48008  18939582.99408
 -15313077.73008 -11932239.95708  19352762.98008  19352766.42708
 93 04 15 22 20 00.0000000  0  6 15 19 26 02 27 13
  -1350298.51608  -1052179.37907  21602106.76408  21602108.87407
  -9709112.06708  -7565551.19508  21929586.85108  21929592.88008
 -15405667.52708 -12004412.56008  20283775.98908  20283778.62908
  -1634054.11809  -1273288.04108  18678249.30709  18678250.63008
 -12946835.65808 -10088439.87708  18989290.72308  18989292.20108
 -15691474.11508 -12227093.99508  19280756.28308  19280759.75208
 93 04 15 22 22 00.0000000  0  6 15 19 26 02 27 13
  -1233569.30608   -961221.60107  21624319.61508  21624321.89207
  -9345940.79308  -7282561.53608  21998696.71508  21998703.05908
 -15442138.75408 -12032831.76508  20276835.82108  20276838.38308
  -1610042.83308  -1254577.95408  18682818.47408  18682819.85908
 -12679358.98808  -9880016.71308  19040190.00908  19040191.68708
 -16062989.98108 -12516586.59408  19210058.96008  19210062.27008
 93 04 15 22 24 00.0000000  0  6 15 19 26 02 27 13
  -1108431.10208   -863711.35008  21648132.50008  21648134.98808
  -8979827.67208  -6997279.60808  22068366.40408  22068372.84008
 -15470224.34408 -12054716.72508  20271491.35708  20271493.94508
  -1584001.27708  -1234285.83708  18687773.96508  18687775.39508
 -12405216.97608  -9666399.78808  19092357.64508  19092359.33208
 -16427548.00608 -12800657.51808  19140685.73608  19140688.97908
 93 04 15 22 26 00.0000000  0  6 15 19 26 02 27 13
   -974853.30408   -759624.80808  21673551.76508  21673554.26508
  -8611434.94908  -6710221.35708  22138470.16008  22138476.64308
 -15489983.78308 -12070113.78308  20267731.38508  20267734.09208
  -1555442.53608  -1212032.27308  18693208.51708  18693209.89408
 -12124809.46108  -9447900.65308  19145717.53908  19145719.32908
 -16784922.85208 -13079131.16508  19072679.30608  19072682.50408
 93 04 15 22 28 00.0000000  0  6 15 19 26 02 27 13
   -832924.71308   -649031.15607  21700559.92408  21700562.39307
  -8240793.09108  -6421410.61508  22209001.79608  22209008.66208
 -15501418.35908 -12079023.94108  20265555.46208  20265558.07108
  -1524045.31708  -1187566.91108  18699183.19408  18699184.59608
 -11838292.35208  -9224640.80008  19200240.09808  19200241.92708
 -17134998.11908 -13351916.83808  19006062.00608  19006065.15708
 93 04 15 22 30 00.0000000  0  6 15 19 26 02 27 13
   -682417.01708   -531752.54308  21729200.62208  21729203.29608
  -7867424.60708  -6130475.25508  22280052.20208  22280059.41408
 -15504148.41608 -12081151.36208  20265036.15908  20265038.76408
  -1489772.64908  -1160860.94008  18705705.14408  18705706.51008
 -11545160.61508  -8996226.69908  19256021.39708  19256023.21108
 -17477343.92608 -13618679.56608  18940915.57408  18940918.72408
 93 04 15 22 32 00.0000000  0  6 15 19 26 02 27 13
   -523760.90908   -408124.54207  21759391.75308  21759394.43307
  -7491776.57608  -5837763.67307  22351536.43808  22351543.79307
 -15498759.47008 -12076952.30508  20266061.74208  20266064.33508
  -1453369.97108  -1132495.21908  18712632.43108  18712633.77408
 -11246105.82908  -8763197.25608  19312929.96708  19312931.81408
 -17812188.58008 -13879597.26308  18877196.60208  18877199.73108
 93 04 15 22 34 00.0000000  0  6 15 19 26 02 27 13
   -357153.21808   -278300.48507  21791096.21308  21791098.80007
  -7114427.05008  -5543726.30107  22423344.88308  22423352.00907
 -15485346.24508 -12066500.54008  20268614.25308  20268616.96108
  -1414612.02808  -1102294.21708  18720007.78108  18720009.17008
 -10941056.21908  -8525496.51908  19370979.07608  19370980.98108
 -18139523.19108 -14134662.98808  18814906.76608  18814909.72708
 93 04 15 22 36 00.0000000  0  6 15 19 26 02 27 13
   -182486.79308   -142196.91607  21824334.56708  21824337.11107
  -6734768.06808  -5247889.30407  22495592.41908  22495599.95907
 -15463819.66508 -12049726.69408  20272710.73008  20272713.48208
  -1373410.18708  -1070188.87308  18727848.13308  18727849.45408
 -10630345.94008  -8283384.88808  19430105.46608  19430107.56308
 -18459037.38608 -14383634.89508  18754105.16608  18754108.03208
 93 04 15 22 38 00.0000000  0  6 15 19 26 02 27 13
       251.41708       196.31907  21859108.51908  21859111.32007
  -6353117.39908  -4950500.44607  22568219.03008  22568227.25507
 -15434444.68508 -12026837.23408  20278300.76908  20278303.53908
  -1329714.61808  -1036140.36408  18736163.14108  18736164.48308
 -10313683.04908  -8036634.85908  19490364.68808  19490366.77208
 -18770512.18608 -14626342.33808  18694833.27008  18694836.15008
 93 04 15 22 40 00.0000000  0  6 15 19 26 02 27 13
    190793.53908    148670.57207  21895367.66808  21895370.29807
  -5969891.55208  -4651884.15307  22641145.26708  22641153.95307
 -15397046.73708 -11997696.11308  20285417.33708  20285420.12808
  -1283332.54808   -999998.48808  18744989.39408  18744990.64408
  -9991360.19308  -7785474.48308  19551700.88708  19551703.02408
 -19074012.22208 -14862835.67508  18637078.97008  18637081.72508
 93 04 15 22 42 00.0000000  0  6 15 19 26 02 27 13
    388909.42307    303046.47007  21933067.73207  21933070.60107
  -5585004.12608  -4351973.21807  22714387.84408  22714396.87007
 -15351784.40108 -11962426.87508  20294030.59508  20294033.41308
  -1234139.75208   -961666.45708  18754350.36408  18754351.68208
  -9663638.74808  -7530107.41708  19614064.42108  19614066.67208
 -19369564.79408 -15093136.20308  18580837.04008  18580839.72008
 93 04 15 22 44 00.0000000  0  6 15 19 26 02 27 13
    594379.50908    463152.85307  21972167.67508  21972170.41407
  -5198594.46807  -4050876.17807  22787920.26107  22787929.74707
 -15299192.91708 -11921446.62008  20304038.38708  20304041.27408
  -1182886.26008   -921728.69008  18764103.66508  18764104.91008
  -9330717.13608  -7270688.28908  19677417.52008  19677419.87408
 -19657181.21408 -15317252.71808  18526105.38708  18526108.05308
 93 04 15 22 46 00.0000000  0  6 15 19 02 26 27 13
    807072.03507    628887.13907  22012641.85507  22012644.75507
  -4811317.63408  -3749103.51207  22861618.04308  22861627.34107
  -1129243.88608   -879929.46808  18774311.56808  18774312.80108
 -15239383.14008 -11874841.75308  20315420.05408  20315422.94108
  -8992864.46808  -7007426.78508  19741709.00108  19741711.41008
 -19936793.81508 -15535132.49308  18472896.61408  18472899.36708
 93 04 15 22 48 00.0000000  0  6 15 19 02 26 27 13
   1026942.18307    800214.31607  22054481.77007  22054484.86307
  -4422852.63107  -3446404.93307  22935541.38907  22935551.17107
  -1073447.09708   -836451.47808  18784929.33208  18784930.59408
 -15171949.52808 -11822296.25008  20328252.46108  20328255.19908
  -8649782.24808  -6740090.30708  19806995.52408  19806998.14808
 -20208246.86008 -15746654.18208  18421240.72508  18421243.41708
 93 04 15 22 50 00.0000000  0  6 15 19 02 13 26 27
   1254424.79007    977473.29607  22097770.48107  22097773.66607
  -4032634.03007  -3142339.99207  23009798.34407  23009808.97307
  -1014589.47108   -790588.40208  18796129.44908  18796130.85008
 -20470905.68308 -15951323.23608  18371258.32908  18371260.93908
 -15096731.36408 -11763684.88908  20342566.00208  20342569.00108
  -8301294.28808  -6468541.58008  19873310.89108  19873313.41508
 93 04 15 22 52 00.0000000  0  5 02 15 13 26 27
   -952539.14808   -742237.50108  18807937.33608  18807938.67608
   1489275.31107   1160473.56807  22142461.09207  22142464.06007
 -20724816.98308 -16149176.03808  18322940.45308  18322943.07508
 -15013959.58808 -11699187.58908  20358317.18408  20358320.08708
  -7947675.95808  -6192995.16408  19940602.43808  19940605.14208
 93 04 15 22 54 00.0000000  0  6 24 15 02 13 26 27
         0.08417         0.07617  22791635.11917  22791647.22917
   1731021.10107   1348846.79407  22188464.09207  22188467.20607
   -887806.18008   -691796.24408  18820255.64408  18820256.92008
 -20970256.32208 -16340427.32008  18276234.79408  18276237.39808
 -14923910.13908 -11629019.34308  20375453.08308  20375455.98108
  -7589552.01608  -5913937.90508  20008751.47208  20008754.33408
 93 04 15 22 56 00.0000000  0  6 24 15 13 02 26 27
   -445304.58207   -346988.57707  22706895.00207  22706906.36507
   1979839.86907   1542731.43707  22235812.71607  22235815.99307
 -21206852.48808 -16524787.82108  18231211.91108  18231214.50208
   -820388.90608   -639263.32408  18833084.62608  18833086.04208
 -14826883.90808 -11553414.69608  20393916.62708  20393919.70408
  -7226611.72308  -5631127.65208  20077816.98208  20077819.82908
 93 04 15 22 58 00.0000000  0  6 24 15 13 02 26 27
   -892154.73007   -695181.83807  22621860.89907  22621871.92207
   2235598.50607   1742023.78707  22284482.01107  22284485.13807
 -21434548.58008 -16702213.20308  18187882.68008  18187885.17208
   -749828.50208   -584281.20808  18846511.89608  18846513.21508
 -14722855.72008 -11472353.99708  20413712.70308  20413715.94808
  -6858600.13708  -5344365.76908  20147847.44008  20147850.51308
 93 04 15 23 00 00.0000000  0  6 24 15 13 02 26 27
  -1340455.85907  -1044505.84307  22536550.82007  22536561.68007
   2498055.15807   1946535.40207  22334425.85207  22334429.03707
 -21653398.57408 -16872745.53308  18146236.74608  18146239.28508
   -676328.18508   -527008.24008  18860498.58008  18860499.93008
 -14611585.57808 -11385650.23808  20434886.89308  20434889.94808
  -6485755.05208  -5053837.53208  20218797.78008  20218800.85308
 93 04 15 23 02 00.0000000  0  6 24 15 13 02 26 27
  -1790119.35207  -1394891.38907  22450981.64807  22450992.00107
   2767225.95307   2156278.81707  22385647.35007  22385650.42107
 -21863200.75408 -17036227.62208  18106312.66008  18106315.09708
   -599763.52208   -467347.47208  18875068.30908  18875069.68008
 -14493548.37808 -11293673.43208  20457348.87108  20457352.11908
  -6108489.52808  -4759864.80508  20290589.28808  20290592.56008
